Wetterdaten: Sonntag, 16.05.2021
Datum Zeit Temp. Aussen Temp. o. S. Temp +5cm Feuchte Auss Luftdruck Regen Sonnenschein Regendauer Solar Windben Empfang
16.05.2021 00:00 9,6 C 8,9 C 7,3 C 93 % 1001,7 hPa 0,0 l/m 0 min 0 min 0 W/m 9,7 km/h (2 Bft) 100,00 %
16.05.2021 00:02 9,6 C 8,9 C 7,3 C 93 % 1001,7 hPa 0,0 l/m 0 min 0 min 0 W/m 6,4 km/h (2 Bft) 13,33 %
16.05.2021 00:04 9,6 C 8,9 C 7,3 C 93 % 1001,7 hPa 0,0 l/m 0 min 0 min 0 W/m 16,1 km/h (3 Bft) 80,95 %
16.05.2021 00:08 9,6 C 8,9 C 7,3 C 93 % 1001,7 hPa 0,0 l/m 0 min 0 min 0 W/m 16,1 km/h (3 Bft) 100,00 %
16.05.2021 00:10 9,6 C 8,9 C 7,3 C 93 % 1001,8 hPa 0,0 l/m 0 min 0 min 0 W/m 19,3 km/h (3 Bft) 100,00 %
16.05.2021 00:12 9,7 C 8,9 C 7,3 C 93 % 1001,7 hPa 0,0 l/m 0 min 0 min 0 W/m 16,1 km/h (3 Bft) 100,00 %
16.05.2021 00:14 9,7 C 8,9 C 7,3 C 93 % 1001,8 hPa 0,0 l/m 0 min 0 min 0 W/m 12,9 km/h (3 Bft) 100,00 %
16.05.2021 00:16 9,7 C 8,9 C 7,3 C 93 % 1001,8 hPa 0,0 l/m 0 min 0 min 0 W/m 12,9 km/h (3 Bft) 100,00 %
16.05.2021 00:18 9,7 C 8,9 C 7,3 C 93 % 1001,8 hPa 0,0 l/m 0 min 0 min 0 W/m 16,1 km/h (3 Bft) 97,87 %
16.05.2021 00:20 9,7 C 8,9 C 7,3 C 93 % 1001,8 hPa 0,0 l/m 0 min 0 min 0 W/m 16,1 km/h (3 Bft) 97,87 %
16.05.2021 00:22 9,7 C 8,9 C 7,3 C 93 % 1001,8 hPa 0,0 l/m 0 min 0 min 0 W/m 16,1 km/h (3 Bft) 97,87 %
16.05.2021 00:24 9,7 C 8,9 C 7,3 C 94 % 1001,8 hPa 0,0 l/m 0 min 0 min 0 W/m 19,3 km/h (3 Bft) 93,62 %
16.05.2021 00:26 9,8 C 8,9 C 7,3 C 94 % 1001,8 hPa 0,0 l/m 0 min 0 min 0 W/m 19,3 km/h (3 Bft) 97,87 %
16.05.2021 00:28 9,8 C 8,9 C 7,3 C 94 % 1001,8 hPa 0,0 l/m 0 min 0 min 0 W/m 19,3 km/h (3 Bft) 97,83 %
16.05.2021 00:30 9,8 C 8,9 C 7,3 C 94 % 1001,9 hPa 0,0 l/m 0 min 0 min 0 W/m 22,5 km/h (4 Bft) 97,87 %
16.05.2021 00:32 9,8 C 8,9 C 7,3 C 94 % 1001,8 hPa 0,0 l/m 0 min 0 min 0 W/m 19,3 km/h (3 Bft) 97,87 %
16.05.2021 00:34 9,8 C 8,9 C 7,3 C 94 % 1001,8 hPa 0,0 l/m 0 min 0 min 0 W/m 16,1 km/h (3 Bft) 95,74 %
16.05.2021 00:36 9,8 C 8,9 C 7,8 C 94 % 1001,9 hPa 0,0 l/m 0 min 0 min 0 W/m 16,1 km/h (3 Bft) 97,87 %
16.05.2021 00:38 9,8 C 9,4 C 7,8 C 94 % 1001,9 hPa 0,0 l/m 0 min 0 min 0 W/m 16,1 km/h (3 Bft) 95,74 %
16.05.2021 00:40 9,8 C 9,4 C 7,8 C 94 % 1001,9 hPa 0,0 l/m 0 min 0 min 0 W/m 16,1 km/h (3 Bft) 95,65 %
16.05.2021 00:42 9,9 C 9,4 C 7,8 C 94 % 1001,9 hPa 0,0 l/m 0 min 0 min 0 W/m 16,1 km/h (3 Bft) 91,49 %
16.05.2021 00:44 9,9 C 9,4 C 7,8 C 94 % 1001,9 hPa 0,0 l/m 0 min 0 min 0 W/m 19,3 km/h (3 Bft) 95,74 %
16.05.2021 00:46 9,9 C 9,4 C 7,8 C 94 % 1001,9 hPa 0,0 l/m 0 min 0 min 0 W/m 12,9 km/h (3 Bft) 95,74 %
16.05.2021 00:48 9,9 C 9,4 C 7,8 C 94 % 1002,0 hPa 0,0 l/m 0 min 0 min 0 W/m 19,3 km/h (3 Bft) 95,74 %
16.05.2021 00:50 9,9 C 9,4 C 7,8 C 94 % 1002,0 hPa 0,0 l/m 0 min 0 min 0 W/m 16,1 km/h (3 Bft) 93,62 %
16.05.2021 00:52 10,0 C 9,4 C 7,8 C 94 % 1002,0 hPa 0,0 l/m 0 min 0 min 0 W/m 19,3 km/h (3 Bft) 95,65 %
16.05.2021 00:54 10,0 C 9,4 C 7,8 C 94 % 1002,0 hPa 0,0 l/m 0 min 0 min 0 W/m 12,9 km/h (3 Bft) 95,74 %
16.05.2021 00:56 10,0 C 9,4 C 7,8 C 94 % 1002,0 hPa 0,0 l/m 0 min 0 min 0 W/m 9,7 km/h (2 Bft) 95,74 %
16.05.2021 00:58 10,0 C 9,4 C 7,8 C 94 % 1002,0 hPa 0,0 l/m 0 min 0 min 0 W/m 25,7 km/h (4 Bft) 93,62 %
16.05.2021 01:00 10,0 C 9,4 C 7,8 C 94 % 1002,0 hPa 0,0 l/m 0 min 0 min 0 W/m 25,7 km/h (4 Bft) 95,74 %
16.05.2021 01:02 10,1 C 9,4 C 7,8 C 94 % 1002,0 hPa 0,0 l/m 0 min 0 min 0 W/m 25,7 km/h (4 Bft) 95,74 %
16.05.2021 01:04 10,1 C 9,4 C 7,8 C 94 % 1002,0 hPa 0,0 l/m 0 min 0 min 0 W/m 22,5 km/h (4 Bft) 95,65 %
16.05.2021 01:06 10,1 C 9,4 C 7,8 C 94 % 1001,9 hPa 0,0 l/m 0 min 0 min 0 W/m 12,9 km/h (3 Bft) 93,62 %
16.05.2021 01:08 10,1 C 9,4 C 7,8 C 94 % 1002,0 hPa 0,0 l/m 0 min 0 min 0 W/m 29,0 km/h (5 Bft) 95,74 %
16.05.2021 01:10 10,1 C 9,4 C 7,8 C 94 % 1002,0 hPa 0,0 l/m 0 min 0 min 0 W/m 19,3 km/h (3 Bft) 95,74 %
16.05.2021 01:12 10,1 C 9,4 C 7,8 C 93 % 1001,9 hPa 0,0 l/m 0 min 0 min 0 W/m 19,3 km/h (3 Bft) 95,74 %
16.05.2021 01:14 10,1 C 9,4 C 7,8 C 93 % 1002,0 hPa 0,0 l/m 0 min 0 min 0 W/m 22,5 km/h (4 Bft) 95,74 %
16.05.2021 01:16 10,1 C 9,4 C 7,8 C 93 % 1001,9 hPa 0,0 l/m 0 min 0 min 0 W/m 19,3 km/h (3 Bft) 95,65 %
16.05.2021 01:18 10,1 C 9,4 C 7,8 C 93 % 1001,9 hPa 0,0 l/m 0 min 0 min 0 W/m 22,5 km/h (4 Bft) 100,00 %
16.05.2021 01:20 10,1 C 9,4 C 7,8 C 93 % 1001,9 hPa 0,0 l/m 0 min 0 min 0 W/m 16,1 km/h (3 Bft) 97,87 %
16.05.2021 01:22 10,1 C 9,4 C 7,8 C 93 % 1002,0 hPa 0,0 l/m 0 min 0 min 0 W/m 25,7 km/h (4 Bft) 97,87 %
16.05.2021 01:24 10,1 C 9,4 C 7,8 C 93 % 1001,9 hPa 0,0 l/m 0 min 0 min 0 W/m 16,1 km/h (3 Bft) 97,87 %
16.05.2021 01:26 10,1 C 9,4 C 7,8 C 93 % 1002,0 hPa 0,0 l/m 0 min 0 min 0 W/m 19,3 km/h (3 Bft) 97,87 %
16.05.2021 01:28 10,1 C 9,4 C 7,8 C 93 % 1002,0 hPa 0,0 l/m 0 min 0 min 0 W/m 16,1 km/h (3 Bft) 97,83 %
16.05.2021 01:30 10,2 C 9,4 C 8,4 C 93 % 1002,1 hPa 0,0 l/m 0 min 0 min 0 W/m 19,3 km/h (3 Bft) 97,87 %
16.05.2021 01:32 10,2 C 9,4 C 7,8 C 93 % 1002,0 hPa 0,0 l/m 0 min 0 min 0 W/m 16,1 km/h (3 Bft) 97,87 %
16.05.2021 01:34 10,2 C 9,4 C 7,8 C 93 % 1002,0 hPa 0,0 l/m 0 min 0 min 0 W/m 19,3 km/h (3 Bft) 97,87 %
16.05.2021 01:36 10,1 C 9,4 C 7,8 C 93 % 1002,0 hPa 0,0 l/m 0 min 0 min 0 W/m 25,7 km/h (4 Bft) 97,87 %
16.05.2021 01:38 10,1 C 9,4 C 7,8 C 92 % 1002,0 hPa 0,0 l/m 0 min 0 min 0 W/m 25,7 km/h (4 Bft) 97,87 %
16.05.2021 01:40 10,1 C 9,4 C 7,8 C 92 % 1002,0 hPa 0,0 l/m 0 min 0 min 0 W/m 19,3 km/h (3 Bft) 97,83 %
16.05.2021 01:42 10,1 C 9,4 C 7,8 C 92 % 1002,0 hPa 0,0 l/m 0 min 0 min 0 W/m 22,5 km/h (4 Bft) 95,74 %
16.05.2021 01:44 10,1 C 9,4 C 7,8 C 92 % 1002,0 hPa 0,0 l/m 0 min 0 min 0 W/m 19,3 km/h (3 Bft) 97,87 %
16.05.2021 01:46 10,1 C 9,4 C 7,8 C 92 % 1002,0 hPa 0,0 l/m 0 min 0 min 0 W/m 22,5 km/h (4 Bft) 95,74 %
16.05.2021 01:48 10,1 C 9,4 C 7,8 C 92 % 1002,1 hPa 0,0 l/m 0 min 0 min 0 W/m 19,3 km/h (3 Bft) 97,87 %
16.05.2021 01:50 10,1 C 9,4 C 7,8 C 92 % 1002,0 hPa 0,0 l/m 0 min 0 min 0 W/m 19,3 km/h (3 Bft) 97,87 %
16.05.2021 01:52 10,1 C 9,4 C 7,8 C 92 % 1002,1 hPa 0,0 l/m 0 min 0 min 0 W/m 19,3 km/h (3 Bft) 69,57 %
16.05.2021 01:54 10,0 C 9,4 C 7,8 C 92 % 1002,1 hPa 0,0 l/m 0 min 0 min 0 W/m 22,5 km/h (4 Bft) 83,72 %
16.05.2021 01:56 10,0 C 9,4 C 7,8 C 92 % 1002,1 hPa 0,0 l/m 0 min 0 min 0 W/m 32,2 km/h (5 Bft) 97,87 %
16.05.2021 01:58 10,0 C 9,4 C 7,8 C 92 % 1002,2 hPa 0,0 l/m 0 min 0 min 0 W/m 25,7 km/h (4 Bft) 97,87 %
16.05.2021 02:00 10,0 C 9,4 C 7,8 C 92 % 1002,1 hPa 0,0 l/m 0 min 0 min 0 W/m 16,1 km/h (3 Bft) 97,87 %
16.05.2021 02:02 10,0 C 9,4 C 7,8 C 92 % 1002,1 hPa 0,0 l/m 0 min 0 min 0 W/m 19,3 km/h (3 Bft) 97,87 %
16.05.2021 02:04 10,0 C 9,4 C 7,8 C 92 % 1002,1 hPa 0,0 l/m 0 min 0 min 0 W/m 16,1 km/h (3 Bft) 97,83 %
16.05.2021 02:06 10,0 C 9,4 C 7,8 C 91 % 1002,1 hPa 0,0 l/m 0 min 0 min 0 W/m 19,3 km/h (3 Bft) 95,74 %
16.05.2021 02:08 10,0 C 9,4 C 7,8 C 91 % 1002,0 hPa 0,0 l/m 0 min 0 min 0 W/m 12,9 km/h (3 Bft) 95,74 %
16.05.2021 02:10 9,9 C 8,9 C 7,8 C 91 % 1002,0 hPa 0,0 l/m 0 min 0 min 0 W/m 12,9 km/h (3 Bft) 95,74 %
16.05.2021 02:12 9,9 C 8,9 C 7,8 C 91 % 1002,0 hPa 0,0 l/m 0 min 0 min 0 W/m 19,3 km/h (3 Bft) 95,74 %
16.05.2021 02:14 9,9 C 8,9 C 7,8 C 91 % 1002,0 hPa 0,0 l/m 0 min 0 min 0 W/m 16,1 km/h (3 Bft) 95,74 %
16.05.2021 02:16 9,9 C 8,9 C 7,8 C 91 % 1002,0 hPa 0,0 l/m 0 min 0 min 0 W/m 19,3 km/h (3 Bft) 97,83 %
16.05.2021 02:18 9,9 C 8,9 C 7,8 C 91 % 1001,9 hPa 0,0 l/m 0 min 0 min 0 W/m 22,5 km/h (4 Bft) 97,87 %
16.05.2021 02:20 9,9 C 8,9 C 7,8 C 91 % 1001,9 hPa 0,0 l/m 0 min 0 min 0 W/m 22,5 km/h (4 Bft) 97,87 %
16.05.2021 02:22 9,9 C 8,9 C 7,8 C 91 % 1001,9 hPa 0,0 l/m 0 min 0 min 0 W/m 9,7 km/h (2 Bft) 97,87 %
16.05.2021 02:24 9,9 C 8,9 C 7,8 C 91 % 1001,9 hPa 0,0 l/m 0 min 0 min 0 W/m 9,7 km/h (2 Bft) 95,74 %
16.05.2021 02:26 9,9 C 8,9 C 7,8 C 91 % 1001,8 hPa 0,0 l/m 0 min 0 min 0 W/m 6,4 km/h (2 Bft) 97,83 %
16.05.2021 02:28 9,8 C 8,9 C 7,8 C 91 % 1001,9 hPa 0,0 l/m 0 min 0 min 0 W/m 16,1 km/h (3 Bft) 97,87 %
16.05.2021 02:30 9,8 C 8,9 C 7,8 C 92 % 1001,8 hPa 0,0 l/m 0 min 0 min 0 W/m 9,7 km/h (2 Bft) 93,62 %
16.05.2021 02:32 9,8 C 8,9 C 7,8 C 92 % 1001,9 hPa 0,0 l/m 0 min 0 min 0 W/m 12,9 km/h (3 Bft) 97,87 %
16.05.2021 02:34 9,8 C 8,9 C 7,8 C 92 % 1001,9 hPa 0,0 l/m 0 min 0 min 0 W/m 12,9 km/h (3 Bft) 97,87 %
16.05.2021 02:36 9,8 C 8,9 C 7,8 C 92 % 1001,8 hPa 0,0 l/m 0 min 0 min 0 W/m 6,4 km/h (2 Bft) 97,87 %
16.05.2021 02:38 9,8 C 9,4 C 7,8 C 92 % 1001,8 hPa 0,0 l/m 0 min 0 min 0 W/m 12,9 km/h (3 Bft) 97,83 %
16.05.2021 02:40 9,8 C 9,4 C 7,8 C 92 % 1001,8 hPa 0,0 l/m 0 min 0 min 0 W/m 12,9 km/h (3 Bft) 97,87 %
16.05.2021 02:42 9,8 C 9,4 C 7,8 C 92 % 1001,8 hPa 0,0 l/m 0 min 0 min 0 W/m 12,9 km/h (3 Bft) 97,87 %
16.05.2021 02:44 9,8 C 9,4 C 7,8 C 92 % 1001,8 hPa 0,0 l/m 0 min 0 min 0 W/m 22,5 km/h (4 Bft) 97,87 %
16.05.2021 02:46 9,9 C 9,4 C 7,8 C 92 % 1001,9 hPa 0,0 l/m 0 min 0 min 0 W/m 19,3 km/h (3 Bft) 95,74 %
16.05.2021 02:48 9,9 C 9,4 C 7,8 C 92 % 1001,9 hPa 0,0 l/m 0 min 0 min 0 W/m 16,1 km/h (3 Bft) 97,87 %
16.05.2021 02:50 9,9 C 9,4 C 7,8 C 92 % 1002,0 hPa 0,0 l/m 0 min 0 min 0 W/m 19,3 km/h (3 Bft) 97,83 %
16.05.2021 02:52 9,9 C 9,4 C 7,8 C 92 % 1001,9 hPa 0,0 l/m 0 min 0 min 0 W/m 16,1 km/h (3 Bft) 93,62 %
16.05.2021 02:54 9,9 C 9,4 C 7,8 C 92 % 1001,9 hPa 0,0 l/m 0 min 0 min 0 W/m 19,3 km/h (3 Bft) 97,87 %
16.05.2021 02:56 10,0 C 9,4 C 7,8 C 92 % 1001,9 hPa 0,0 l/m 0 min 0 min 0 W/m 19,3 km/h (3 Bft) 97,87 %
16.05.2021 02:58 10,0 C 9,4 C 7,8 C 92 % 1001,9 hPa 0,0 l/m 0 min 0 min 0 W/m 19,3 km/h (3 Bft) 97,87 %
16.05.2021 03:00 10,0 C 9,4 C 7,8 C 92 % 1001,9 hPa 0,0 l/m 0 min 0 min 0 W/m 19,3 km/h (3 Bft) 97,87 %
16.05.2021 03:02 10,0 C 9,4 C 8,4 C 92 % 1001,9 hPa 0,0 l/m 0 min 0 min 0 W/m 25,7 km/h (4 Bft) 95,65 %
16.05.2021 03:04 10,0 C 9,4 C 8,4 C 92 % 1001,9 hPa 0,0 l/m 0 min 0 min 0 W/m 6,4 km/h (2 Bft) 97,87 %
16.05.2021 03:06 10,0 C 9,4 C 8,4 C 92 % 1001,9 hPa 0,0 l/m 0 min 0 min 0 W/m 16,1 km/h (3 Bft) 100,00 %
16.05.2021 03:08 10,0 C 9,4 C 8,4 C 92 % 1001,9 hPa 0,0 l/m 0 min 0 min 0 W/m 22,5 km/h (4 Bft) 95,74 %
16.05.2021 03:10 10,0 C 9,4 C 8,4 C 91 % 1001,9 hPa 0,0 l/m 0 min 0 min 0 W/m 22,5 km/h (4 Bft) 97,87 %
16.05.2021 03:12 10,1 C 9,4 C 8,4 C 91 % 1001,8 hPa 0,0 l/m 0 min 0 min 0 W/m 9,7 km/h (2 Bft) 97,87 %
16.05.2021 03:14 10,1 C 9,4 C 8,4 C 91 % 1001,9 hPa 0,0 l/m 0 min 0 min 0 W/m 16,1 km/h (3 Bft) 97,83 %
16.05.2021 03:16 10,1 C 9,4 C 8,4 C 91 % 1001,9 hPa 0,0 l/m 0 min 0 min 0 W/m 12,9 km/h (3 Bft) 95,74 %
16.05.2021 03:18 10,0 C 9,4 C 8,4 C 91 % 1002,0 hPa 0,0 l/m 0 min 0 min 0 W/m 25,7 km/h (4 Bft) 95,74 %
16.05.2021 03:20 10,1 C 9,4 C 7,8 C 91 % 1001,9 hPa 0,0 l/m 0 min 0 min 0 W/m 16,1 km/h (3 Bft) 97,87 %
16.05.2021 03:22 10,1 C 9,4 C 7,8 C 91 % 1002,0 hPa 0,0 l/m 0 min 0 min 0 W/m 12,9 km/h (3 Bft) 97,87 %
16.05.2021 03:24 10,0 C 9,4 C 7,8 C 91 % 1001,9 hPa 0,0 l/m 0 min 0 min 0 W/m 16,1 km/h (3 Bft) 97,87 %
16.05.2021 03:26 10,0 C 9,4 C 7,8 C 91 % 1001,9 hPa 0,0 l/m 0 min 0 min 0 W/m 22,5 km/h (4 Bft) 93,48 %
16.05.2021 03:28 10,0 C 9,4 C 7,8 C 91 % 1001,9 hPa 0,0 l/m 0 min 0 min 0 W/m 12,9 km/h (3 Bft) 95,74 %
16.05.2021 03:30 10,0 C 9,4 C 7,8 C 91 % 1001,9 hPa 0,0 l/m 0 min 0 min 0 W/m 22,5 km/h (4 Bft) 95,74 %
16.05.2021 03:32 10,0 C 9,4 C 7,8 C 91 % 1001,9 hPa 0,0 l/m 0 min 0 min 0 W/m 19,3 km/h (3 Bft) 95,74 %
16.05.2021 03:34 10,0 C 9,4 C 7,8 C 90 % 1001,9 hPa 0,0 l/m 0 min 0 min 0 W/m 29,0 km/h (5 Bft) 91,49 %
16.05.2021 03:36 10,0 C 9,4 C 7,8 C 90 % 1002,0 hPa 0,0 l/m 0 min 0 min 0 W/m 16,1 km/h (3 Bft) 91,49 %
16.05.2021 03:38 10,0 C 9,4 C 7,8 C 90 % 1002,0 hPa 0,0 l/m 0 min 0 min 0 W/m 22,5 km/h (4 Bft) 93,48 %
16.05.2021 03:40 10,0 C 9,4 C 7,8 C 90 % 1001,9 hPa 0,0 l/m 0 min 0 min 0 W/m 35,4 km/h (5 Bft) 95,74 %
16.05.2021 03:42 10,0 C 9,4 C 7,8 C 90 % 1001,9 hPa 0,0 l/m 0 min 0 min 0 W/m 22,5 km/h (4 Bft) 95,74 %
16.05.2021 03:44 10,0 C 9,4 C 7,8 C 90 % 1001,9 hPa 0,0 l/m 0 min 0 min 0 W/m 19,3 km/h (3 Bft) 95,74 %
16.05.2021 03:46 10,0 C 9,4 C 7,8 C 90 % 1001,9 hPa 0,0 l/m 0 min 0 min 0 W/m 16,1 km/h (3 Bft) 93,62 %
16.05.2021 03:48 9,9 C 9,4 C 7,8 C 90 % 1001,9 hPa 0,0 l/m 0 min 0 min 0 W/m 16,1 km/h (3 Bft) 95,74 %
16.05.2021 03:50 9,9 C 8,9 C 7,8 C 89 % 1001,9 hPa 0,0 l/m 0 min 0 min 0 W/m 12,9 km/h (3 Bft) 93,48 %
16.05.2021 03:52 9,9 C 8,9 C 7,8 C 89 % 1001,9 hPa 0,0 l/m 0 min 0 min 0 W/m 12,9 km/h (3 Bft) 93,62 %
16.05.2021 03:54 9,9 C 8,9 C 7,8 C 89 % 1001,9 hPa 0,0 l/m 0 min 0 min 0 W/m 22,5 km/h (4 Bft) 93,62 %
16.05.2021 03:56 9,9 C 8,9 C 7,8 C 89 % 1002,0 hPa 0,0 l/m 0 min 0 min 0 W/m 19,3 km/h (3 Bft) 97,87 %
16.05.2021 03:58 9,8 C 8,9 C 7,8 C 89 % 1002,0 hPa 0,0 l/m 0 min 0 min 0 W/m 19,3 km/h (3 Bft) 97,87 %
16.05.2021 04:00 9,8 C 8,9 C 7,8 C 89 % 1002,0 hPa 0,0 l/m 0 min 0 min 0 W/m 6,4 km/h (2 Bft) 97,87 %
16.05.2021 04:02 9,8 C 8,9 C 7,8 C 89 % 1001,9 hPa 0,0 l/m 0 min 0 min 0 W/m 16,1 km/h (3 Bft) 100,00 %
16.05.2021 04:04 9,8 C 8,9 C 7,8 C 89 % 1001,9 hPa 0,0 l/m 0 min 0 min 0 W/m 9,7 km/h (2 Bft) 95,74 %
16.05.2021 04:06 9,7 C 8,9 C 7,8 C 90 % 1001,9 hPa 0,0 l/m 0 min 0 min 0 W/m 16,1 km/h (3 Bft) 96,43 %
16.05.2021 04:08 9,7 C 8,9 C 7,3 C 90 % 1001,9 hPa 0,0 l/m 0 min 0 min 0 W/m 12,9 km/h (3 Bft) 97,87 %
16.05.2021 04:10 9,7 C 8,9 C 7,3 C 90 % 1001,9 hPa 0,0 l/m 0 min 0 min 0 W/m 19,3 km/h (3 Bft) 95,74 %
16.05.2021 04:12 9,6 C 8,9 C 7,3 C 90 % 1001,9 hPa 0,0 l/m 0 min 0 min 0 W/m 16,1 km/h (3 Bft) 97,87 %
16.05.2021 04:14 9,6 C 8,9 C 7,3 C 90 % 1001,9 hPa 0,0 l/m 0 min 0 min 0 W/m 12,9 km/h (3 Bft) 97,83 %
16.05.2021 04:16 9,6 C 8,9 C 7,3 C 90 % 1001,9 hPa 0,0 l/m 0 min 0 min 0 W/m 16,1 km/h (3 Bft) 100,00 %
16.05.2021 04:18 9,6 C 8,9 C 7,3 C 90 % 1001,9 hPa 0,0 l/m 0 min 0 min 0 W/m 16,1 km/h (3 Bft) 100,00 %
16.05.2021 04:20 9,6 C 8,9 C 7,3 C 90 % 1001,9 hPa 0,0 l/m 0 min 0 min 0 W/m 19,3 km/h (3 Bft) 100,00 %
16.05.2021 04:22 9,6 C 8,9 C 7,3 C 90 % 1001,9 hPa 0,0 l/m 0 min 0 min 0 W/m 9,7 km/h (2 Bft) 100,00 %
16.05.2021 04:24 9,6 C 8,9 C 7,3 C 90 % 1001,9 hPa 0,0 l/m 0 min 0 min 0 W/m 12,9 km/h (3 Bft) 100,00 %
16.05.2021 04:26 9,6 C 8,9 C 7,3 C 90 % 1002,0 hPa 0,0 l/m 0 min 0 min 0 W/m 12,9 km/h (3 Bft) 97,83 %
16.05.2021 04:28 9,5 C 8,9 C 7,3 C 90 % 1001,9 hPa 0,0 l/m 0 min 0 min 0 W/m 12,9 km/h (3 Bft) 100,00 %
16.05.2021 04:30 9,5 C 8,9 C 7,3 C 90 % 1001,9 hPa 0,0 l/m 0 min 0 min 0 W/m 6,4 km/h (2 Bft) 100,00 %
16.05.2021 04:32 9,5 C 8,9 C 7,3 C 90 % 1001,9 hPa 0,0 l/m 0 min 0 min 0 W/m 12,9 km/h (3 Bft) 100,00 %
16.05.2021 04:34 9,5 C 8,9 C 7,3 C 90 % 1001,9 hPa 0,0 l/m 0 min 0 min 0 W/m 22,5 km/h (4 Bft) 100,00 %
16.05.2021 04:36 9,5 C 8,9 C 7,3 C 90 % 1001,9 hPa 0,0 l/m 0 min 0 min 0 W/m 12,9 km/h (3 Bft) 100,00 %
16.05.2021 04:38 9,5 C 8,9 C 7,3 C 90 % 1001,8 hPa 0,0 l/m 0 min 0 min 0 W/m 12,9 km/h (3 Bft) 100,00 %
16.05.2021 04:40 9,5 C 8,3 C 7,3 C 90 % 1001,9 hPa 0,0 l/m 0 min 0 min 0 W/m 12,9 km/h (3 Bft) 100,00 %
16.05.2021 04:42 9,4 C 8,3 C 7,3 C 90 % 1001,8 hPa 0,0 l/m 0 min 0 min 0 W/m 12,9 km/h (3 Bft) 100,00 %
16.05.2021 04:44 9,4 C 8,3 C 7,3 C 90 % 1001,9 hPa 0,0 l/m 0 min 0 min 0 W/m 12,9 km/h (3 Bft) 100,00 %
16.05.2021 04:46 9,4 C 8,3 C 7,3 C 90 % 1001,8 hPa 0,0 l/m 0 min 0 min 0 W/m 12,9 km/h (3 Bft) 100,00 %
16.05.2021 04:48 9,4 C 8,3 C 7,3 C 90 % 1001,9 hPa 0,0 l/m 0 min 0 min 0 W/m 12,9 km/h (3 Bft) 100,00 %
16.05.2021 04:50 9,4 C 8,3 C 7,3 C 90 % 1001,9 hPa 0,0 l/m 0 min 0 min 0 W/m 9,7 km/h (2 Bft) 100,00 %
16.05.2021 04:52 9,3 C 8,3 C 7,3 C 90 % 1001,8 hPa 0,0 l/m 0 min 0 min 0 W/m 6,4 km/h (2 Bft) 100,00 %
16.05.2021 04:54 9,3 C 8,3 C 7,3 C 90 % 1001,9 hPa 0,0 l/m 0 min 0 min 0 W/m 9,7 km/h (2 Bft) 100,00 %
16.05.2021 04:56 9,3 C 8,3 C 7,3 C 90 % 1001,8 hPa 0,0 l/m 0 min 0 min 0 W/m 6,4 km/h (2 Bft) 100,00 %
16.05.2021 04:58 9,3 C 8,3 C 7,3 C 90 % 1001,8 hPa 0,0 l/m 0 min 0 min 0 W/m 6,4 km/h (2 Bft) 100,00 %
16.05.2021 05:00 9,2 C 8,3 C 6,7 C 91 % 1001,8 hPa 0,0 l/m 0 min 0 min 0 W/m 6,4 km/h (2 Bft) 100,00 %
16.05.2021 05:02 9,1 C 7,8 C 6,7 C 91 % 1001,8 hPa 0,0 l/m 0 min 0 min 0 W/m 6,4 km/h (2 Bft) 98,11 %
16.05.2021 05:04 9,1 C 7,8 C 6,7 C 91 % 1001,8 hPa 0,0 l/m 0 min 0 min 0 W/m 12,9 km/h (3 Bft) 100,00 %
16.05.2021 05:06 9,1 C 7,8 C 6,7 C 91 % 1001,8 hPa 0,0 l/m 0 min 0 min 0 W/m 12,9 km/h (3 Bft) 100,00 %
16.05.2021 05:08 9,1 C 7,8 C 6,7 C 91 % 1001,8 hPa 0,0 l/m 0 min 0 min 0 W/m 6,4 km/h (2 Bft) 100,00 %
16.05.2021 05:10 9,0 C 7,8 C 6,7 C 91 % 1001,9 hPa 0,0 l/m 0 min 0 min 0 W/m 3,2 km/h (1 Bft) 100,00 %
16.05.2021 05:12 9,0 C 7,8 C 6,7 C 91 % 1001,8 hPa 0,0 l/m 0 min 0 min 0 W/m 12,9 km/h (3 Bft) 100,00 %
16.05.2021 05:14 9,0 C 7,8 C 6,7 C 91 % 1001,8 hPa 0,0 l/m 0 min 0 min 0 W/m 9,7 km/h (2 Bft) 100,00 %
16.05.2021 05:16 9,0 C 8,3 C 6,7 C 91 % 1001,9 hPa 0,0 l/m 0 min 0 min 0 W/m 22,5 km/h (4 Bft) 100,00 %
16.05.2021 05:18 9,0 C 8,3 C 6,7 C 92 % 1001,9 hPa 0,0 l/m 0 min 0 min 0 W/m 19,3 km/h (3 Bft) 100,00 %
16.05.2021 05:20 9,0 C 8,3 C 6,7 C 92 % 1001,9 hPa 0,0 l/m 0 min 0 min 0 W/m 16,1 km/h (3 Bft) 100,00 %
16.05.2021 05:22 9,0 C 8,3 C 6,7 C 92 % 1001,8 hPa 0,0 l/m 0 min 0 min 0 W/m 19,3 km/h (3 Bft) 97,83 %
16.05.2021 05:24 9,0 C 8,3 C 6,7 C 92 % 1001,9 hPa 0,0 l/m 0 min 0 min 0 W/m 12,9 km/h (3 Bft) 100,00 %
16.05.2021 05:26 8,9 C 7,8 C 6,7 C 92 % 1001,9 hPa 0,0 l/m 0 min 0 min 0 W/m 12,9 km/h (3 Bft) 100,00 %
16.05.2021 05:28 8,9 C 7,8 C 6,7 C 92 % 1001,9 hPa 0,0 l/m 0 min 0 min 0 W/m 3,2 km/h (1 Bft) 97,87 %
16.05.2021 05:30 8,9 C 7,8 C 6,7 C 92 % 1001,9 hPa 0,0 l/m 0 min 0 min 0 W/m 6,4 km/h (2 Bft) 100,00 %
16.05.2021 05:32 8,9 C 7,8 C 6,7 C 92 % 1001,9 hPa 0,0 l/m 0 min 0 min 0 W/m 6,4 km/h (2 Bft) 100,00 %
16.05.2021 05:34 8,9 C 7,8 C 6,7 C 92 % 1001,9 hPa 0,0 l/m 0 min 0 min 0 W/m 3,2 km/h (1 Bft) 100,00 %
16.05.2021 05:36 8,8 C 7,8 C 6,7 C 92 % 1001,9 hPa 0,0 l/m 0 min 0 min 0 W/m 3,2 km/h (1 Bft) 100,00 %
16.05.2021 05:38 8,8 C 7,8 C 6,7 C 92 % 1001,9 hPa 0,0 l/m 0 min 0 min 0 W/m 9,7 km/h (2 Bft) 97,87 %
16.05.2021 05:40 8,8 C 7,8 C 6,7 C 92 % 1001,9 hPa 0,0 l/m 0 min 0 min 0 W/m 9,7 km/h (2 Bft) 100,00 %
16.05.2021 05:42 8,8 C 7,8 C 6,7 C 92 % 1001,9 hPa 0,0 l/m 0 min 0 min 0 W/m 6,4 km/h (2 Bft) 100,00 %
16.05.2021 05:44 8,8 C 7,8 C 6,7 C 92 % 1001,9 hPa 0,0 l/m 0 min 0 min 0 W/m 6,4 km/h (2 Bft) 97,87 %
16.05.2021 05:46 8,7 C 7,8 C 6,7 C 92 % 1001,9 hPa 0,0 l/m 0 min 0 min 4 W/m 12,9 km/h (3 Bft) 97,83 %
16.05.2021 05:48 8,7 C 7,8 C 6,7 C 93 % 1001,9 hPa 0,0 l/m 0 min 0 min 5 W/m 6,4 km/h (2 Bft) 97,87 %
16.05.2021 05:50 8,6 C 7,8 C 6,7 C 93 % 1001,9 hPa 0,0 l/m 0 min 0 min 5 W/m 3,2 km/h (1 Bft) 95,74 %
16.05.2021 05:52 8,6 C 7,8 C 6,7 C 93 % 1001,8 hPa 0,0 l/m 0 min 0 min 5 W/m 3,2 km/h (1 Bft) 95,74 %
16.05.2021 05:54 8,6 C 7,8 C 6,7 C 93 % 1001,9 hPa 0,0 l/m 0 min 0 min 7 W/m 6,4 km/h (2 Bft) 97,87 %
16.05.2021 05:56 8,6 C 7,8 C 6,7 C 93 % 1001,9 hPa 0,0 l/m 0 min 0 min 7 W/m 12,9 km/h (3 Bft) 97,87 %
16.05.2021 05:58 8,6 C 7,8 C 6,7 C 93 % 1001,9 hPa 0,0 l/m 0 min 0 min 8 W/m 6,4 km/h (2 Bft) 97,83 %
16.05.2021 06:00 8,5 C 7,8 C 6,7 C 93 % 1002,0 hPa 0,0 l/m 0 min 0 min 9 W/m 6,4 km/h (2 Bft) 97,56 %
16.05.2021 06:02 8,5 C 7,8 C 6,7 C 93 % 1002,0 hPa 0,0 l/m 0 min 0 min 9 W/m 3,2 km/h (1 Bft) 98,11 %
16.05.2021 06:04 8,5 C 7,8 C 6,7 C 93 % 1002,0 hPa 0,0 l/m 0 min 0 min 11 W/m 12,9 km/h (3 Bft) 95,12 %
16.05.2021 06:08 8,5 C 7,8 C 6,7 C 93 % 1002,0 hPa 0,0 l/m 0 min 0 min 12 W/m 12,9 km/h (3 Bft) 97,87 %
16.05.2021 06:10 8,5 C 7,8 C 6,7 C 93 % 1002,0 hPa 0,0 l/m 0 min 0 min 12 W/m 3,2 km/h (1 Bft) 97,83 %
16.05.2021 06:12 8,5 C 7,8 C 6,7 C 94 % 1002,0 hPa 0,0 l/m 0 min 0 min 14 W/m 9,7 km/h (2 Bft) 97,87 %
16.05.2021 06:14 8,5 C 7,8 C 6,7 C 94 % 1002,0 hPa 0,0 l/m 0 min 0 min 14 W/m 12,9 km/h (3 Bft) 98,11 %
16.05.2021 06:16 8,5 C 7,8 C 6,7 C 94 % 1002,0 hPa 0,0 l/m 0 min 0 min 16 W/m 9,7 km/h (2 Bft) 97,87 %
16.05.2021 06:18 8,5 C 7,8 C 6,7 C 94 % 1002,0 hPa 0,0 l/m 0 min 0 min 16 W/m 6,4 km/h (2 Bft) 97,87 %
16.05.2021 06:20 8,5 C 7,8 C 6,7 C 94 % 1002,1 hPa 0,0 l/m 0 min 0 min 16 W/m 9,7 km/h (2 Bft) 95,65 %
16.05.2021 06:22 8,5 C 7,8 C 6,7 C 94 % 1002,1 hPa 0,0 l/m 0 min 0 min 17 W/m 6,4 km/h (2 Bft) 100,00 %
16.05.2021 06:24 8,5 C 7,8 C 6,7 C 94 % 1002,1 hPa 0,0 l/m 0 min 0 min 20 W/m 9,7 km/h (2 Bft) 93,48 %
16.05.2021 06:26 8,5 C 7,8 C 6,7 C 94 % 1002,1 hPa 0,0 l/m 0 min 0 min 22 W/m 9,7 km/h (2 Bft) 100,00 %
16.05.2021 06:28 8,5 C 7,8 C 6,7 C 94 % 1002,1 hPa 0,0 l/m 0 min 0 min 24 W/m 12,9 km/h (3 Bft) 97,87 %
16.05.2021 06:30 8,5 C 7,8 C 6,7 C 94 % 1002,1 hPa 0,0 l/m 0 min 0 min 25 W/m 3,2 km/h (1 Bft) 97,87 %
16.05.2021 06:32 8,5 C 7,8 C 6,7 C 94 % 1002,1 hPa 0,0 l/m 0 min 0 min 25 W/m 6,4 km/h (2 Bft) 98,08 %
16.05.2021 06:34 8,5 C 7,8 C 6,7 C 94 % 1002,1 hPa 0,0 l/m 0 min 0 min 26 W/m 9,7 km/h (2 Bft) 97,87 %
16.05.2021 06:36 8,5 C 7,8 C 6,7 C 94 % 1002,1 hPa 0,0 l/m 0 min 0 min 30 W/m 9,7 km/h (2 Bft) 95,74 %
16.05.2021 06:38 8,6 C 7,8 C 6,7 C 94 % 1002,1 hPa 0,0 l/m 0 min 0 min 34 W/m 3,2 km/h (1 Bft) 97,87 %
16.05.2021 06:40 8,6 C 8,3 C 6,7 C 94 % 1002,1 hPa 0,0 l/m 0 min 0 min 41 W/m 3,2 km/h (1 Bft) 97,87 %
16.05.2021 06:42 8,6 C 8,3 C 6,7 C 94 % 1002,1 hPa 0,0 l/m 0 min 0 min 49 W/m 9,7 km/h (2 Bft) 97,87 %
16.05.2021 06:44 8,6 C 8,3 C 6,7 C 94 % 1002,1 hPa 0,0 l/m 0 min 0 min 56 W/m 6,4 km/h (2 Bft) 95,74 %
16.05.2021 06:46 8,7 C 8,3 C 7,3 C 94 % 1002,1 hPa 0,0 l/m 0 min 0 min 62 W/m 9,7 km/h (2 Bft) 97,83 %
16.05.2021 06:48 8,7 C 8,3 C 7,3 C 95 % 1002,1 hPa 0,0 l/m 0 min 0 min 63 W/m 6,4 km/h (2 Bft) 97,87 %
16.05.2021 06:50 8,8 C 8,3 C 7,3 C 95 % 1002,1 hPa 0,0 l/m 0 min 0 min 65 W/m 6,4 km/h (2 Bft) 97,87 %
16.05.2021 06:52 8,8 C 8,9 C 7,3 C 95 % 1002,1 hPa 0,0 l/m 0 min 0 min 68 W/m 9,7 km/h (2 Bft) 97,87 %
16.05.2021 06:54 8,9 C 8,9 C 7,3 C 95 % 1002,2 hPa 0,0 l/m 0 min 0 min 70 W/m 12,9 km/h (3 Bft) 97,87 %
16.05.2021 06:56 8,9 C 8,9 C 7,3 C 95 % 1002,2 hPa 0,0 l/m 0 min 0 min 70 W/m 16,1 km/h (3 Bft) 97,83 %
16.05.2021 06:58 9,0 C 8,9 C 7,3 C 95 % 1002,2 hPa 0,0 l/m 0 min 0 min 69 W/m 9,7 km/h (2 Bft) 97,87 %
16.05.2021 07:00 9,0 C 8,9 C 7,3 C 95 % 1002,2 hPa 0,0 l/m 0 min 0 min 71 W/m 12,9 km/h (3 Bft) 95,74 %
16.05.2021 07:02 9,0 C 8,9 C 7,8 C 95 % 1002,3 hPa 0,0 l/m 0 min 0 min 76 W/m 9,7 km/h (2 Bft) 95,74 %
16.05.2021 07:04 9,1 C 9,4 C 7,8 C 95 % 1002,3 hPa 0,0 l/m 0 min 0 min 85 W/m 25,7 km/h (4 Bft) 97,56 %
16.05.2021 07:06 9,1 C 9,4 C 7,8 C 95 % 1002,4 hPa 0,0 l/m 2 min 0 min 96 W/m 12,9 km/h (3 Bft) 97,87 %
16.05.2021 07:08 9,3 C 9,4 C 7,8 C 95 % 1002,3 hPa 0,0 l/m 2 min 0 min 102 W/m 12,9 km/h (3 Bft) 97,87 %
16.05.2021 07:10 9,3 C 9,4 C 7,8 C 95 % 1002,3 hPa 0,0 l/m 2 min 0 min 99 W/m 16,1 km/h (3 Bft) 95,65 %
16.05.2021 07:12 9,4 C 9,4 C 7,8 C 95 % 1002,2 hPa 0,0 l/m 0 min 0 min 92 W/m 16,1 km/h (3 Bft) 95,74 %
16.05.2021 07:14 9,4 C 9,4 C 7,8 C 95 % 1002,2 hPa 0,0 l/m 0 min 0 min 88 W/m 9,7 km/h (2 Bft) 97,87 %
16.05.2021 07:16 9,5 C 9,4 C 8,4 C 95 % 1002,3 hPa 0,0 l/m 0 min 0 min 88 W/m 12,9 km/h (3 Bft) 98,11 %
16.05.2021 07:18 9,5 C 9,4 C 8,4 C 95 % 1002,3 hPa 0,0 l/m 0 min 0 min 95 W/m 16,1 km/h (3 Bft) 97,87 %
16.05.2021 07:20 9,6 C 9,4 C 8,4 C 95 % 1002,2 hPa 0,0 l/m 0 min 0 min 79 W/m 12,9 km/h (3 Bft) 97,83 %
16.05.2021 07:22 9,6 C 9,4 C 8,4 C 95 % 1002,2 hPa 0,0 l/m 0 min 0 min 73 W/m 16,1 km/h (3 Bft) 97,87 %
16.05.2021 07:24 9,7 C 10,0 C 8,4 C 94 % 1002,2 hPa 0,0 l/m 0 min 0 min 70 W/m 12,9 km/h (3 Bft) 97,87 %
16.05.2021 07:26 9,8 C 10,0 C 8,4 C 94 % 1002,2 hPa 0,0 l/m 0 min 0 min 73 W/m 16,1 km/h (3 Bft) 95,74 %
16.05.2021 07:28 9,8 C 10,0 C 8,4 C 94 % 1002,2 hPa 0,0 l/m 0 min 0 min 85 W/m 6,4 km/h (2 Bft) 93,62 %
16.05.2021 07:30 9,8 C 10,0 C 8,4 C 94 % 1002,2 hPa 0,0 l/m 0 min 0 min 96 W/m 6,4 km/h (2 Bft) 95,74 %
16.05.2021 07:32 9,9 C 10,0 C 8,4 C 94 % 1002,3 hPa 0,0 l/m 0 min 0 min 108 W/m 6,4 km/h (2 Bft) 97,83 %
16.05.2021 07:34 9,9 C 10,0 C 8,4 C 94 % 1002,3 hPa 0,0 l/m 2 min 0 min 131 W/m 19,3 km/h (3 Bft) 95,74 %
16.05.2021 07:36 10,0 C 10,0 C 8,4 C 94 % 1002,3 hPa 0,0 l/m 2 min 0 min 145 W/m 19,3 km/h (3 Bft) 97,87 %
16.05.2021 07:38 10,0 C 10,6 C 8,9 C 94 % 1002,3 hPa 0,0 l/m 2 min 0 min 158 W/m 16,1 km/h (3 Bft) 97,87 %
16.05.2021 07:40 10,1 C 10,6 C 8,9 C 94 % 1002,3 hPa 0,0 l/m 2 min 0 min 175 W/m 12,9 km/h (3 Bft) 97,87 %
16.05.2021 07:42 10,2 C 10,6 C 8,9 C 94 % 1002,3 hPa 0,0 l/m 2 min 0 min 184 W/m 29,0 km/h (5 Bft) 95,74 %
16.05.2021 07:44 10,3 C 10,6 C 8,9 C 93 % 1002,3 hPa 0,0 l/m 2 min 0 min 191 W/m 6,4 km/h (2 Bft) 97,83 %
16.05.2021 07:46 10,4 C 10,6 C 9,5 C 93 % 1002,3 hPa 0,0 l/m 2 min 0 min 182 W/m 19,3 km/h (3 Bft) 95,74 %
16.05.2021 07:48 10,5 C 10,6 C 9,5 C 93 % 1002,3 hPa 0,0 l/m 2 min 0 min 163 W/m 16,1 km/h (3 Bft) 97,87 %
16.05.2021 07:50 10,5 C 10,6 C 9,5 C 92 % 1002,3 hPa 0,0 l/m 0 min 0 min 147 W/m 29,0 km/h (5 Bft) 97,87 %
16.05.2021 07:52 10,5 C 10,6 C 8,9 C 92 % 1002,4 hPa 0,0 l/m 0 min 0 min 126 W/m 12,9 km/h (3 Bft) 95,74 %
16.05.2021 07:54 10,6 C 10,6 C 8,9 C 92 % 1002,3 hPa 0,0 l/m 0 min 0 min 102 W/m 12,9 km/h (3 Bft) 97,87 %
16.05.2021 07:56 10,6 C 10,6 C 8,9 C 92 % 1002,4 hPa 0,0 l/m 0 min 0 min 89 W/m 16,1 km/h (3 Bft) 97,83 %
16.05.2021 07:58 10,6 C 10,6 C 8,9 C 91 % 1002,4 hPa 0,0 l/m 0 min 0 min 71 W/m 12,9 km/h (3 Bft) 97,87 %
16.05.2021 08:00 10,6 C 10,6 C 8,9 C 91 % 1002,4 hPa 0,0 l/m 0 min 0 min 63 W/m 12,9 km/h (3 Bft) 97,87 %
16.05.2021 08:02 10,6 C 10,0 C 8,9 C 91 % 1002,4 hPa 0,0 l/m 0 min 0 min 64 W/m 29,0 km/h (5 Bft) 95,74 %
16.05.2021 08:04 10,6 C 10,0 C 8,9 C 91 % 1002,4 hPa 0,0 l/m 0 min 0 min 66 W/m 16,1 km/h (3 Bft) 97,56 %
16.05.2021 08:06 10,6 C 10,0 C 8,9 C 91 % 1002,4 hPa 0,0 l/m 0 min 0 min 74 W/m 12,9 km/h (3 Bft) 97,87 %
16.05.2021 08:08 10,6 C 10,0 C 8,9 C 91 % 1002,5 hPa 0,0 l/m 0 min 0 min 64 W/m 16,1 km/h (3 Bft) 97,87 %
16.05.2021 08:10 10,6 C 10,0 C 8,9 C 91 % 1002,5 hPa 0,0 l/m 0 min 0 min 60 W/m 19,3 km/h (3 Bft) 97,83 %
16.05.2021 08:12 10,6 C 10,0 C 8,9 C 91 % 1002,5 hPa 0,0 l/m 0 min 0 min 58 W/m 16,1 km/h (3 Bft) 97,87 %
16.05.2021 08:14 10,6 C 10,0 C 8,9 C 91 % 1002,5 hPa 0,0 l/m 0 min 0 min 59 W/m 9,7 km/h (2 Bft) 95,45 %
16.05.2021 08:16 10,6 C 10,0 C 8,9 C 91 % 1002,5 hPa 0,0 l/m 0 min 0 min 69 W/m 16,1 km/h (3 Bft) 95,74 %
16.05.2021 08:18 10,6 C 10,0 C 8,9 C 91 % 1002,5 hPa 0,0 l/m 0 min 0 min 93 W/m 9,7 km/h (2 Bft) 96,49 %
16.05.2021 08:20 10,6 C 10,6 C 8,9 C 91 % 1002,5 hPa 0,0 l/m 0 min 0 min 100 W/m 12,9 km/h (3 Bft) 97,87 %
16.05.2021 08:22 10,6 C 10,6 C 8,9 C 91 % 1002,6 hPa 0,0 l/m 0 min 0 min 105 W/m 19,3 km/h (3 Bft) 97,87 %
16.05.2021 08:24 10,6 C 10,6 C 8,9 C 91 % 1002,5 hPa 0,0 l/m 0 min 0 min 106 W/m 25,7 km/h (4 Bft) 95,74 %
16.05.2021 08:26 10,6 C 10,6 C 8,9 C 91 % 1002,5 hPa 0,0 l/m 0 min 0 min 87 W/m 22,5 km/h (4 Bft) 97,87 %
16.05.2021 08:28 10,6 C 10,0 C 8,9 C 91 % 1002,5 hPa 0,0 l/m 0 min 0 min 90 W/m 22,5 km/h (4 Bft) 97,87 %
16.05.2021 08:30 10,6 C 10,0 C 8,9 C 91 % 1002,6 hPa 0,0 l/m 0 min 0 min 81 W/m 32,2 km/h (5 Bft) 95,65 %
16.05.2021 08:32 10,6 C 10,6 C 8,9 C 91 % 1002,5 hPa 0,0 l/m 0 min 0 min 83 W/m 12,9 km/h (3 Bft) 95,74 %
16.05.2021 08:34 10,6 C 10,6 C 8,9 C 91 % 1002,6 hPa 0,0 l/m 0 min 0 min 101 W/m 22,5 km/h (4 Bft) 93,62 %
16.05.2021 08:36 10,6 C 10,6 C 8,9 C 91 % 1002,6 hPa 0,0 l/m 0 min 0 min 85 W/m 6,4 km/h (2 Bft) 95,74 %
16.05.2021 08:38 10,6 C 10,6 C 8,9 C 91 % 1002,6 hPa 0,0 l/m 0 min 0 min 88 W/m 12,9 km/h (3 Bft) 97,87 %
16.05.2021 08:40 10,7 C 10,6 C 8,9 C 91 % 1002,6 hPa 0,0 l/m 0 min 0 min 97 W/m 12,9 km/h (3 Bft) 97,87 %
16.05.2021 08:42 10,7 C 10,6 C 8,9 C 91 % 1002,6 hPa 0,0 l/m 0 min 0 min 100 W/m 19,3 km/h (3 Bft) 97,83 %
16.05.2021 08:44 10,7 C 10,6 C 8,9 C 91 % 1002,5 hPa 0,0 l/m 0 min 0 min 97 W/m 12,9 km/h (3 Bft) 97,87 %
16.05.2021 08:46 10,8 C 10,6 C 8,9 C 91 % 1002,6 hPa 0,0 l/m 0 min 0 min 106 W/m 12,9 km/h (3 Bft) 95,74 %
16.05.2021 08:48 10,8 C 10,6 C 8,9 C 91 % 1002,6 hPa 0,0 l/m 0 min 0 min 110 W/m 32,2 km/h (5 Bft) 95,74 %
16.05.2021 08:50 10,8 C 10,6 C 9,5 C 91 % 1002,6 hPa 0,0 l/m 0 min 0 min 105 W/m 16,1 km/h (3 Bft) 97,87 %
16.05.2021 08:52 10,8 C 10,6 C 8,9 C 90 % 1002,6 hPa 0,0 l/m 0 min 0 min 113 W/m 25,7 km/h (4 Bft) 97,87 %
16.05.2021 08:54 10,8 C 10,6 C 9,5 C 90 % 1002,6 hPa 0,0 l/m 0 min 0 min 143 W/m 25,7 km/h (4 Bft) 97,83 %
16.05.2021 08:56 10,8 C 10,6 C 9,5 C 90 % 1002,6 hPa 0,0 l/m 0 min 0 min 166 W/m 32,2 km/h (5 Bft) 95,74 %
16.05.2021 08:58 10,8 C 11,1 C 9,5 C 90 % 1002,6 hPa 0,0 l/m 0 min 0 min 181 W/m 25,7 km/h (4 Bft) 97,87 %
16.05.2021 09:00 10,9 C 11,1 C 9,5 C 90 % 1002,6 hPa 0,0 l/m 0 min 0 min 179 W/m 22,5 km/h (4 Bft) 97,87 %
16.05.2021 09:02 10,9 C 11,1 C 9,5 C 90 % 1002,5 hPa 0,0 l/m 0 min 0 min 132 W/m 19,3 km/h (3 Bft) 97,87 %
16.05.2021 09:04 10,9 C 11,1 C 9,5 C 90 % 1002,6 hPa 0,0 l/m 0 min 0 min 138 W/m 12,9 km/h (3 Bft) 95,74 %
16.05.2021 09:06 11,0 C 11,1 C 9,5 C 90 % 1002,6 hPa 0,0 l/m 0 min 0 min 150 W/m 19,3 km/h (3 Bft) 95,65 %
16.05.2021 09:08 11,0 C 11,1 C 9,5 C 90 % 1002,6 hPa 0,0 l/m 0 min 0 min 152 W/m 19,3 km/h (3 Bft) 97,87 %
16.05.2021 09:10 11,0 C 11,1 C 9,5 C 90 % 1002,6 hPa 0,0 l/m 0 min 0 min 120 W/m 6,4 km/h (2 Bft) 97,87 %
16.05.2021 09:12 11,1 C 11,1 C 9,5 C 90 % 1002,6 hPa 0,0 l/m 0 min 0 min 103 W/m 19,3 km/h (3 Bft) 95,74 %
16.05.2021 09:14 11,1 C 11,1 C 9,5 C 90 % 1002,6 hPa 0,0 l/m 0 min 0 min 121 W/m 12,9 km/h (3 Bft) 93,62 %
16.05.2021 09:16 11,1 C 11,1 C 9,5 C 89 % 1002,6 hPa 0,0 l/m 0 min 0 min 128 W/m 22,5 km/h (4 Bft) 95,74 %
16.05.2021 09:18 11,1 C 11,1 C 9,5 C 89 % 1002,6 hPa 0,0 l/m 0 min 0 min 120 W/m 19,3 km/h (3 Bft) 91,30 %
16.05.2021 09:20 11,1 C 11,1 C 9,5 C 89 % 1002,6 hPa 0,0 l/m 0 min 0 min 167 W/m 22,5 km/h (4 Bft) 95,74 %
16.05.2021 09:22 11,1 C 12,8 C 10,6 C 89 % 1002,6 hPa 0,0 l/m 0 min 0 min 252 W/m 12,9 km/h (3 Bft) 91,49 %
16.05.2021 09:24 11,2 C 14,4 C 11,7 C 89 % 1002,6 hPa 0,0 l/m 2 min 0 min 591 W/m 22,5 km/h (4 Bft) 93,62 %
16.05.2021 09:26 11,4 C 14,4 C 11,7 C 89 % 1002,6 hPa 0,0 l/m 2 min 0 min 487 W/m 16,1 km/h (3 Bft) 89,36 %
16.05.2021 09:28 11,5 C 14,4 C 12,3 C 89 % 1002,6 hPa 0,0 l/m 2 min 0 min 403 W/m 19,3 km/h (3 Bft) 97,87 %
16.05.2021 09:30 11,6 C 13,9 C 12,3 C 88 % 1002,7 hPa 0,0 l/m 2 min 0 min 370 W/m 22,5 km/h (4 Bft) 97,83 %
16.05.2021 09:32 11,8 C 13,9 C 12,3 C 88 % 1002,5 hPa 0,0 l/m 2 min 0 min 348 W/m 16,1 km/h (3 Bft) 97,87 %
16.05.2021 09:34 11,9 C 14,4 C 12,8 C 87 % 1002,6 hPa 0,0 l/m 2 min 0 min 563 W/m 22,5 km/h (4 Bft) 97,87 %
16.05.2021 09:36 12,0 C 13,9 C 12,3 C 87 % 1002,6 hPa 0,0 l/m 2 min 0 min 392 W/m 12,9 km/h (3 Bft) 95,74 %
16.05.2021 09:38 12,0 C 12,8 C 11,7 C 86 % 1002,6 hPa 0,0 l/m 0 min 0 min 87 W/m 22,5 km/h (4 Bft) 97,87 %
16.05.2021 09:40 12,0 C 12,2 C 11,1 C 85 % 1002,6 hPa 0,0 l/m 0 min 0 min 59 W/m 19,3 km/h (3 Bft) 97,87 %
16.05.2021 09:42 11,9 C 11,7 C 10,6 C 85 % 1002,6 hPa 0,0 l/m 0 min 2 min 55 W/m 19,3 km/h (3 Bft) 97,83 %
16.05.2021 09:44 11,9 C 11,7 C 10,0 C 86 % 1002,6 hPa 0,0 l/m 0 min 0 min 59 W/m 16,1 km/h (3 Bft) 95,74 %
16.05.2021 09:46 11,9 C 11,7 C 10,0 C 86 % 1002,7 hPa 0,0 l/m 0 min 0 min 107 W/m 16,1 km/h (3 Bft) 95,74 %
16.05.2021 09:48 11,9 C 11,7 C 10,0 C 86 % 1002,7 hPa 0,0 l/m 0 min 0 min 185 W/m 19,3 km/h (3 Bft) 97,87 %
16.05.2021 09:50 11,8 C 11,7 C 10,0 C 86 % 1002,7 hPa 0,0 l/m 0 min 0 min 190 W/m 25,7 km/h (4 Bft) 97,87 %
16.05.2021 09:52 11,8 C 11,7 C 10,0 C 86 % 1002,7 hPa 0,0 l/m 0 min 0 min 129 W/m 9,7 km/h (2 Bft) 97,83 %
16.05.2021 09:54 11,8 C 11,7 C 10,0 C 87 % 1002,7 hPa 0,0 l/m 0 min 0 min 121 W/m 16,1 km/h (3 Bft) 97,87 %
16.05.2021 09:56 11,8 C 11,7 C 9,5 C 87 % 1002,7 hPa 0,0 l/m 0 min 2 min 98 W/m 16,1 km/h (3 Bft) 97,87 %
16.05.2021 09:58 11,8 C 11,7 C 9,5 C 87 % 1002,7 hPa 0,0 l/m 0 min 2 min 68 W/m 16,1 km/h (3 Bft) 97,87 %
16.05.2021 10:00 11,8 C 11,1 C 8,9 C 87 % 1002,7 hPa 0,0 l/m 0 min 2 min 79 W/m 22,5 km/h (4 Bft) 100,00 %
16.05.2021 10:02 11,7 C 11,1 C 8,4 C 87 % 1002,7 hPa 0,2 l/m 0 min 2 min 119 W/m 16,1 km/h (3 Bft) 95,74 %
16.05.2021 10:04 11,6 C 11,1 C 8,4 C 88 % 1002,7 hPa 0,0 l/m 0 min 2 min 133 W/m 16,1 km/h (3 Bft) 100,00 %
16.05.2021 10:06 11,6 C 11,1 C 8,4 C 88 % 1002,7 hPa 0,0 l/m 0 min 0 min 176 W/m 16,1 km/h (3 Bft) 100,00 %
16.05.2021 10:08 11,6 C 11,7 C 8,9 C 88 % 1002,7 hPa 0,0 l/m 0 min 0 min 260 W/m 41,8 km/h (6 Bft) 100,00 %
16.05.2021 10:10 11,6 C 11,7 C 8,9 C 88 % 1002,7 hPa 0,0 l/m 0 min 0 min 229 W/m 19,3 km/h (3 Bft) 100,00 %
16.05.2021 10:12 11,6 C 11,7 C 8,4 C 88 % 1002,7 hPa 0,0 l/m 0 min 0 min 197 W/m 22,5 km/h (4 Bft) 100,00 %
16.05.2021 10:14 11,6 C 11,7 C 8,9 C 88 % 1002,7 hPa 0,0 l/m 0 min 0 min 206 W/m 19,3 km/h (3 Bft) 100,00 %
16.05.2021 10:16 11,6 C 11,7 C 8,9 C 88 % 1002,8 hPa 0,0 l/m 0 min 0 min 208 W/m 29,0 km/h (5 Bft) 100,00 %
16.05.2021 10:18 11,7 C 11,7 C 8,9 C 88 % 1002,7 hPa 0,0 l/m 0 min 0 min 197 W/m 6,4 km/h (2 Bft) 100,00 %
16.05.2021 10:20 11,8 C 11,7 C 8,9 C 88 % 1002,7 hPa 0,0 l/m 0 min 0 min 196 W/m 19,3 km/h (3 Bft) 100,00 %
16.05.2021 10:22 11,8 C 11,7 C 8,9 C 88 % 1002,8 hPa 0,0 l/m 0 min 0 min 166 W/m 25,7 km/h (4 Bft) 100,00 %
16.05.2021 10:24 11,8 C 12,2 C 8,9 C 87 % 1002,7 hPa 0,0 l/m 0 min 0 min 203 W/m 22,5 km/h (4 Bft) 100,00 %
16.05.2021 10:26 11,8 C 12,2 C 9,5 C 87 % 1002,7 hPa 0,0 l/m 0 min 0 min 212 W/m 19,3 km/h (3 Bft) 97,87 %
16.05.2021 10:28 11,9 C 12,8 C 10,6 C 87 % 1002,7 hPa 0,0 l/m 0 min 0 min 212 W/m 25,7 km/h (4 Bft) 100,00 %
16.05.2021 10:30 12,0 C 12,8 C 10,0 C 86 % 1002,7 hPa 0,0 l/m 0 min 0 min 206 W/m 22,5 km/h (4 Bft) 100,00 %
16.05.2021 10:32 12,0 C 13,3 C 10,6 C 86 % 1002,6 hPa 0,0 l/m 0 min 0 min 197 W/m 16,1 km/h (3 Bft) 97,87 %
16.05.2021 10:34 12,1 C 13,3 C 10,6 C 85 % 1002,6 hPa 0,0 l/m 2 min 0 min 333 W/m 12,9 km/h (3 Bft) 100,00 %
16.05.2021 10:36 12,2 C 13,3 C 11,1 C 85 % 1002,7 hPa 0,0 l/m 2 min 0 min 348 W/m 9,7 km/h (2 Bft) 100,00 %
16.05.2021 10:38 12,4 C 13,9 C 11,1 C 85 % 1002,6 hPa 0,0 l/m 2 min 0 min 344 W/m 9,7 km/h (2 Bft) 100,00 %
16.05.2021 10:40 12,5 C 13,9 C 11,1 C 84 % 1002,6 hPa 0,0 l/m 0 min 0 min 288 W/m 19,3 km/h (3 Bft) 100,00 %
16.05.2021 10:42 12,5 C 13,3 C 11,1 C 83 % 1002,6 hPa 0,0 l/m 0 min 0 min 228 W/m 22,5 km/h (4 Bft) 100,00 %
16.05.2021 10:44 12,6 C 13,9 C 12,8 C 83 % 1002,5 hPa 0,0 l/m 2 min 0 min 436 W/m 29,0 km/h (5 Bft) 100,00 %
16.05.2021 10:46 12,7 C 13,9 C 12,8 C 82 % 1002,8 hPa 0,0 l/m 2 min 0 min 542 W/m 32,2 km/h (5 Bft) 100,00 %
16.05.2021 10:48 12,8 C 13,9 C 14,5 C 81 % 1002,6 hPa 0,0 l/m 0 min 0 min 339 W/m 19,3 km/h (3 Bft) 100,00 %
16.05.2021 10:50 13,0 C 14,4 C 16,1 C 82 % 1002,5 hPa 0,0 l/m 2 min 0 min 833 W/m 16,1 km/h (3 Bft) 100,00 %
16.05.2021 10:52 13,2 C 15,0 C 17,3 C 82 % 1002,5 hPa 0,0 l/m 2 min 0 min 881 W/m 19,3 km/h (3 Bft) 100,00 %
16.05.2021 10:54 13,4 C 15,0 C 16,1 C 82 % 1002,5 hPa 0,0 l/m 2 min 0 min 755 W/m 12,9 km/h (3 Bft) 100,00 %
16.05.2021 10:56 13,5 C 15,0 C 15,0 C 82 % 1002,5 hPa 0,0 l/m 0 min 0 min 230 W/m 9,7 km/h (2 Bft) 100,00 %
16.05.2021 10:58 13,5 C 14,4 C 15,0 C 80 % 1002,5 hPa 0,0 l/m 0 min 0 min 286 W/m 22,5 km/h (4 Bft) 100,00 %
16.05.2021 11:00 13,5 C 15,0 C 15,0 C 79 % 1002,6 hPa 0,0 l/m 2 min 0 min 901 W/m 22,5 km/h (4 Bft) 100,00 %
16.05.2021 11:02 13,6 C 15,0 C 15,0 C 80 % 1002,5 hPa 0,0 l/m 2 min 0 min 905 W/m 22,5 km/h (4 Bft) 97,87 %
16.05.2021 11:04 13,8 C 15,6 C 14,5 C 79 % 1002,6 hPa 0,0 l/m 2 min 0 min 905 W/m 19,3 km/h (3 Bft) 100,00 %
16.05.2021 11:06 13,8 C 15,0 C 13,9 C 79 % 1002,6 hPa 0,0 l/m 2 min 0 min 536 W/m 32,2 km/h (5 Bft) 100,00 %
16.05.2021 11:08 13,8 C 14,4 C 13,4 C 77 % 1002,6 hPa 0,0 l/m 0 min 0 min 328 W/m 22,5 km/h (4 Bft) 100,00 %
16.05.2021 11:10 13,8 C 14,4 C 12,8 C 78 % 1002,5 hPa 0,0 l/m 2 min 0 min 403 W/m 22,5 km/h (4 Bft) 100,00 %
16.05.2021 11:12 13,7 C 13,9 C 12,3 C 78 % 1002,5 hPa 0,0 l/m 0 min 0 min 232 W/m 16,1 km/h (3 Bft) 100,00 %
16.05.2021 11:14 13,6 C 13,9 C 12,3 C 78 % 1002,6 hPa 0,0 l/m 0 min 0 min 162 W/m 16,1 km/h (3 Bft) 97,87 %
16.05.2021 11:16 13,5 C 13,3 C 11,7 C 78 % 1002,6 hPa 0,0 l/m 0 min 0 min 133 W/m 16,1 km/h (3 Bft) 100,00 %
16.05.2021 11:18 13,5 C 12,8 C 10,6 C 79 % 1002,7 hPa 0,0 l/m 0 min 2 min 109 W/m 32,2 km/h (5 Bft) 100,00 %
16.05.2021 11:20 13,3 C 12,8 C 9,5 C 80 % 1002,7 hPa 0,0 l/m 0 min 2 min 139 W/m 32,2 km/h (5 Bft) 100,00 %
16.05.2021 11:22 13,1 C 12,2 C 9,5 C 81 % 1002,7 hPa 0,0 l/m 0 min 2 min 180 W/m 19,3 km/h (3 Bft) 100,00 %
16.05.2021 11:24 13,0 C 12,2 C 9,5 C 81 % 1002,6 hPa 0,0 l/m 0 min 2 min 231 W/m 16,1 km/h (3 Bft) 100,00 %
16.05.2021 11:26 12,9 C 12,8 C 10,0 C 82 % 1002,6 hPa 0,0 l/m 0 min 2 min 257 W/m 12,9 km/h (3 Bft) 97,87 %
16.05.2021 11:28 12,9 C 14,4 C 10,6 C 84 % 1002,6 hPa 0,0 l/m 2 min 2 min 874 W/m 19,3 km/h (3 Bft) 100,00 %
16.05.2021 11:30 13,1 C 15,6 C 11,7 C 85 % 1002,6 hPa 0,0 l/m 2 min 2 min 853 W/m 16,1 km/h (3 Bft) 100,00 %
16.05.2021 11:32 13,2 C 15,6 C 11,1 C 84 % 1002,7 hPa 0,0 l/m 2 min 2 min 871 W/m 22,5 km/h (4 Bft) 97,87 %
16.05.2021 11:34 13,3 C 16,1 C 11,7 C 83 % 1002,5 hPa 0,0 l/m 2 min 2 min 893 W/m 25,7 km/h (4 Bft) 100,00 %
16.05.2021 11:36 13,5 C 15,6 C 11,7 C 82 % 1002,6 hPa 0,0 l/m 2 min 2 min 881 W/m 35,4 km/h (5 Bft) 97,87 %
16.05.2021 11:38 13,5 C 15,6 C 11,7 C 81 % 1002,6 hPa 0,0 l/m 2 min 0 min 882 W/m 22,5 km/h (4 Bft) 95,74 %
16.05.2021 11:40 13,7 C 16,7 C 12,8 C 81 % 1002,5 hPa 0,0 l/m 2 min 0 min 905 W/m 12,9 km/h (3 Bft) 97,87 %
16.05.2021 11:42 13,9 C 16,1 C 12,8 C 81 % 1002,6 hPa 0,0 l/m 2 min 0 min 916 W/m 25,7 km/h (4 Bft) 97,83 %
16.05.2021 11:44 14,0 C 16,7 C 15,0 C 80 % 1002,5 hPa 0,0 l/m 2 min 0 min 934 W/m 19,3 km/h (3 Bft) 95,74 %
16.05.2021 11:46 14,2 C 16,7 C 15,0 C 80 % 1002,5 hPa 0,0 l/m 2 min 0 min 937 W/m 32,2 km/h (5 Bft) 95,74 %
16.05.2021 11:48 14,2 C 16,1 C 13,9 C 79 % 1002,4 hPa 0,0 l/m 2 min 0 min 720 W/m 29,0 km/h (5 Bft) 95,74 %
16.05.2021 11:50 14,3 C 15,0 C 13,4 C 78 % 1002,5 hPa 0,0 l/m 0 min 0 min 222 W/m 25,7 km/h (4 Bft) 95,74 %
16.05.2021 11:52 14,2 C 13,9 C 11,7 C 77 % 1002,5 hPa 0,0 l/m 0 min 2 min 175 W/m 29,0 km/h (5 Bft) 68,09 %
16.05.2021 11:54 14,0 C 12,8 C 10,0 C 79 % 1002,6 hPa 0,2 l/m 0 min 2 min 76 W/m 29,0 km/h (5 Bft) 82,22 %
16.05.2021 11:56 13,7 C 11,7 C 8,9 C 79 % 1002,8 hPa 0,0 l/m 0 min 2 min 52 W/m 29,0 km/h (5 Bft) 91,49 %
16.05.2021 11:58 13,3 C 10,6 C 7,8 C 78 % 1002,6 hPa 0,2 l/m 0 min 2 min 74 W/m 57,9 km/h (7 Bft) 93,62 %
16.05.2021 12:00 12,8 C 9,4 C 7,8 C 79 % 1002,8 hPa 0,2 l/m 0 min 2 min 130 W/m 32,2 km/h (5 Bft) 95,74 %
16.05.2021 12:02 12,5 C 10,0 C 8,4 C 80 % 1002,6 hPa 0,0 l/m 0 min 2 min 141 W/m 32,2 km/h (5 Bft) 93,62 %
16.05.2021 12:04 12,3 C 10,6 C 9,5 C 81 % 1002,5 hPa 0,0 l/m 0 min 2 min 141 W/m 38,6 km/h (5 Bft) 95,74 %
16.05.2021 12:08 12,2 C 12,2 C 12,3 C 84 % 1002,5 hPa 0,0 l/m 4 min 0 min 817 W/m 35,4 km/h (5 Bft) 94,62 %
16.05.2021 12:10 12,3 C 13,3 C 12,8 C 84 % 1002,5 hPa 0,0 l/m 2 min 0 min 993 W/m 19,3 km/h (3 Bft) 95,74 %
16.05.2021 12:12 12,4 C 13,3 C 11,1 C 85 % 1002,6 hPa 0,0 l/m 2 min 0 min 993 W/m 29,0 km/h (5 Bft) 93,62 %
16.05.2021 12:14 12,5 C 12,8 C 10,6 C 84 % 1002,5 hPa 0,0 l/m 2 min 0 min 490 W/m 29,0 km/h (5 Bft) 93,62 %
16.05.2021 12:16 12,5 C 13,3 C 11,1 C 85 % 1002,5 hPa 0,0 l/m 2 min 0 min 461 W/m 29,0 km/h (5 Bft) 93,48 %
16.05.2021 12:18 12,6 C 13,3 C 10,6 C 83 % 1002,5 hPa 0,0 l/m 2 min 0 min 478 W/m 32,2 km/h (5 Bft) 95,74 %
16.05.2021 12:20 12,7 C 13,3 C 10,6 C 83 % 1002,5 hPa 0,0 l/m 2 min 0 min 481 W/m 35,4 km/h (5 Bft) 95,74 %
16.05.2021 12:22 12,8 C 13,3 C 10,0 C 83 % 1002,6 hPa 0,0 l/m 2 min 0 min 500 W/m 38,6 km/h (5 Bft) 93,62 %
16.05.2021 12:24 12,8 C 13,9 C 10,0 C 82 % 1002,4 hPa 0,0 l/m 2 min 0 min 448 W/m 19,3 km/h (3 Bft) 93,62 %
16.05.2021 12:26 12,9 C 13,9 C 10,6 C 82 % 1002,4 hPa 0,0 l/m 2 min 0 min 465 W/m 22,5 km/h (4 Bft) 93,62 %
16.05.2021 12:28 13,0 C 14,4 C 11,7 C 82 % 1002,3 hPa 0,0 l/m 2 min 0 min 471 W/m 16,1 km/h (3 Bft) 91,30 %
16.05.2021 12:30 13,1 C 15,0 C 13,4 C 83 % 1002,3 hPa 0,0 l/m 2 min 0 min 471 W/m 22,5 km/h (4 Bft) 91,49 %
16.05.2021 12:32 13,4 C 15,6 C 13,9 C 82 % 1002,2 hPa 0,0 l/m 2 min 0 min 471 W/m 22,5 km/h (4 Bft) 95,74 %
16.05.2021 12:34 13,6 C 16,1 C 13,9 C 82 % 1002,2 hPa 0,0 l/m 2 min 0 min 471 W/m 19,3 km/h (3 Bft) 95,74 %
16.05.2021 12:36 13,8 C 15,6 C 12,8 C 79 % 1002,2 hPa 0,0 l/m 2 min 0 min 471 W/m 38,6 km/h (5 Bft) 93,62 %
16.05.2021 12:38 13,9 C 15,0 C 11,7 C 78 % 1002,2 hPa 0,0 l/m 2 min 0 min 476 W/m 35,4 km/h (5 Bft) 93,62 %
16.05.2021 12:40 13,9 C 14,4 C 11,1 C 76 % 1002,1 hPa 0,0 l/m 2 min 0 min 485 W/m 29,0 km/h (5 Bft) 95,65 %
16.05.2021 12:42 14,0 C 15,0 C 12,3 C 77 % 1002,0 hPa 0,0 l/m 2 min 0 min 489 W/m 22,5 km/h (4 Bft) 97,87 %
16.05.2021 12:44 14,2 C 16,1 C 15,0 C 77 % 1002,0 hPa 0,0 l/m 2 min 0 min 836 W/m 29,0 km/h (5 Bft) 97,87 %
16.05.2021 12:46 14,4 C 16,7 C 15,0 C 76 % 1002,0 hPa 0,0 l/m 2 min 0 min 837 W/m 22,5 km/h (4 Bft) 97,87 %
16.05.2021 12:48 14,6 C 16,1 C 13,4 C 73 % 1001,9 hPa 0,0 l/m 2 min 0 min 998 W/m 32,2 km/h (5 Bft) 95,74 %
16.05.2021 12:50 14,7 C 16,1 C 12,8 C 73 % 1002,0 hPa 0,0 l/m 2 min 0 min 530 W/m 22,5 km/h (4 Bft) 97,87 %
16.05.2021 12:52 14,8 C 16,1 C 13,4 C 72 % 1001,9 hPa 0,0 l/m 2 min 0 min 601 W/m 29,0 km/h (5 Bft) 97,83 %
16.05.2021 12:54 14,9 C 16,1 C 12,3 C 72 % 1001,9 hPa 0,0 l/m 2 min 0 min 601 W/m 22,5 km/h (4 Bft) 95,74 %
16.05.2021 12:56 14,9 C 16,1 C 11,7 C 72 % 1001,9 hPa 0,0 l/m 2 min 0 min 457 W/m 35,4 km/h (5 Bft) 97,87 %
16.05.2021 12:58 15,0 C 16,7 C 12,8 C 74 % 1001,9 hPa 0,0 l/m 2 min 0 min 487 W/m 16,1 km/h (3 Bft) 93,62 %
16.05.2021 13:00 15,1 C 16,7 C 12,3 C 75 % 1001,9 hPa 0,0 l/m 2 min 0 min 468 W/m 12,9 km/h (3 Bft) 97,87 %
16.05.2021 13:02 15,1 C 16,7 C 12,3 C 74 % 1002,0 hPa 0,0 l/m 2 min 0 min 490 W/m 22,5 km/h (4 Bft) 97,87 %
16.05.2021 13:04 15,1 C 16,1 C 13,4 C 72 % 1001,8 hPa 0,0 l/m 2 min 0 min 552 W/m 16,1 km/h (3 Bft) 97,83 %
16.05.2021 13:06 15,3 C 16,1 C 13,9 C 74 % 1001,8 hPa 0,0 l/m 2 min 0 min 503 W/m 12,9 km/h (3 Bft) 97,87 %
16.05.2021 13:08 15,2 C 16,1 C 13,9 C 72 % 1001,8 hPa 0,0 l/m 2 min 0 min 459 W/m 16,1 km/h (3 Bft) 97,87 %
16.05.2021 13:10 15,3 C 16,7 C 15,6 C 72 % 1001,8 hPa 0,0 l/m 2 min 0 min 420 W/m 19,3 km/h (3 Bft) 97,87 %
16.05.2021 13:12 15,4 C 17,2 C 18,9 C 74 % 1001,8 hPa 0,0 l/m 2 min 0 min 432 W/m 16,1 km/h (3 Bft) 97,87 %
16.05.2021 13:14 15,6 C 17,8 C 19,5 C 73 % 1001,7 hPa 0,0 l/m 2 min 0 min 482 W/m 16,1 km/h (3 Bft) 97,87 %
16.05.2021 13:16 15,8 C 17,8 C 20,0 C 74 % 1001,7 hPa 0,0 l/m 2 min 0 min 789 W/m 12,9 km/h (3 Bft) 95,65 %
16.05.2021 13:18 15,9 C 18,3 C 21,1 C 72 % 1001,7 hPa 0,0 l/m 2 min 0 min 799 W/m 19,3 km/h (3 Bft) 95,74 %
16.05.2021 13:20 16,0 C 18,3 C 21,7 C 71 % 1001,7 hPa 0,0 l/m 2 min 0 min 799 W/m 35,4 km/h (5 Bft) 97,87 %
16.05.2021 13:22 16,0 C 17,8 C 22,3 C 69 % 1001,6 hPa 0,0 l/m 2 min 0 min 796 W/m 19,3 km/h (3 Bft) 97,87 %
16.05.2021 13:24 16,1 C 17,8 C 20,6 C 70 % 1001,6 hPa 0,0 l/m 2 min 0 min 602 W/m 25,7 km/h (4 Bft) 97,87 %
16.05.2021 13:26 16,1 C 17,2 C 18,9 C 69 % 1001,6 hPa 0,0 l/m 2 min 0 min 441 W/m 25,7 km/h (4 Bft) 97,87 %
16.05.2021 13:28 16,1 C 17,8 C 18,4 C 71 % 1001,6 hPa 0,0 l/m 2 min 0 min 480 W/m 12,9 km/h (3 Bft) 93,48 %
16.05.2021 13:30 16,3 C 17,8 C 17,3 C 71 % 1001,6 hPa 0,0 l/m 0 min 0 min 411 W/m 16,1 km/h (3 Bft) 93,62 %
16.05.2021 13:32 16,3 C 17,8 C 17,3 C 69 % 1001,5 hPa 0,0 l/m 0 min 0 min 408 W/m 16,1 km/h (3 Bft) 95,74 %
16.05.2021 13:34 16,3 C 17,8 C 16,7 C 68 % 1001,6 hPa 0,0 l/m 2 min 0 min 414 W/m 16,1 km/h (3 Bft) 97,87 %
16.05.2021 13:36 16,2 C 17,2 C 16,1 C 68 % 1001,5 hPa 0,0 l/m 0 min 0 min 401 W/m 19,3 km/h (3 Bft) 95,74 %
16.05.2021 13:38 16,2 C 16,7 C 15,6 C 69 % 1001,6 hPa 0,0 l/m 0 min 0 min 325 W/m 25,7 km/h (4 Bft) 97,87 %
16.05.2021 13:40 16,1 C 16,7 C 15,0 C 68 % 1001,6 hPa 0,0 l/m 0 min 0 min 274 W/m 12,9 km/h (3 Bft) 97,83 %
16.05.2021 13:42 16,0 C 16,7 C 14,5 C 67 % 1001,5 hPa 0,0 l/m 0 min 0 min 291 W/m 16,1 km/h (3 Bft) 100,00 %
16.05.2021 13:44 16,0 C 16,7 C 15,0 C 67 % 1001,5 hPa 0,0 l/m 0 min 0 min 350 W/m 22,5 km/h (4 Bft) 100,00 %
16.05.2021 13:46 15,9 C 16,7 C 14,5 C 67 % 1001,5 hPa 0,0 l/m 0 min 0 min 305 W/m 16,1 km/h (3 Bft) 100,00 %
16.05.2021 13:48 15,9 C 16,7 C 14,5 C 67 % 1001,5 hPa 0,0 l/m 0 min 0 min 316 W/m 16,1 km/h (3 Bft) 100,00 %
16.05.2021 13:50 15,8 C 16,7 C 14,5 C 67 % 1001,5 hPa 0,0 l/m 0 min 0 min 391 W/m 25,7 km/h (4 Bft) 95,74 %
16.05.2021 13:52 15,8 C 16,7 C 14,5 C 66 % 1001,5 hPa 0,0 l/m 0 min 0 min 404 W/m 19,3 km/h (3 Bft) 97,83 %
16.05.2021 13:54 15,9 C 16,7 C 14,5 C 67 % 1001,4 hPa 0,0 l/m 0 min 0 min 399 W/m 22,5 km/h (4 Bft) 100,00 %
16.05.2021 13:56 15,9 C 16,7 C 14,5 C 66 % 1001,4 hPa 0,0 l/m 0 min 0 min 360 W/m 35,4 km/h (5 Bft) 91,49 %
16.05.2021 13:58 15,8 C 16,1 C 13,9 C 65 % 1001,4 hPa 0,0 l/m 0 min 0 min 308 W/m 32,2 km/h (5 Bft) 85,11 %
16.05.2021 14:00 15,8 C 16,7 C 14,5 C 67 % 1001,5 hPa 0,0 l/m 0 min 0 min 316 W/m 25,7 km/h (4 Bft) 95,74 %
16.05.2021 14:02 15,8 C 16,7 C 14,5 C 67 % 1001,4 hPa 0,0 l/m 0 min 0 min 390 W/m 22,5 km/h (4 Bft) 84,78 %
16.05.2021 14:04 15,9 C 17,8 C 14,5 C 68 % 1001,5 hPa 0,0 l/m 2 min 0 min 643 W/m 19,3 km/h (3 Bft) 82,98 %
16.05.2021 14:06 16,1 C 18,9 C 15,0 C 69 % 1001,4 hPa 0,0 l/m 2 min 0 min 1013 W/m 12,9 km/h (3 Bft) 91,49 %
16.05.2021 14:08 16,4 C 18,3 C 15,0 C 66 % 1001,4 hPa 0,0 l/m 2 min 0 min 840 W/m 19,3 km/h (3 Bft) 100,00 %
16.05.2021 14:10 16,4 C 17,8 C 15,0 C 65 % 1001,4 hPa 0,0 l/m 2 min 0 min 545 W/m 22,5 km/h (4 Bft) 97,87 %
16.05.2021 14:12 16,4 C 17,2 C 14,5 C 65 % 1001,5 hPa 0,0 l/m 2 min 0 min 407 W/m 38,6 km/h (5 Bft) 100,00 %
16.05.2021 14:14 16,3 C 16,7 C 14,5 C 63 % 1001,4 hPa 0,0 l/m 2 min 0 min 473 W/m 35,4 km/h (5 Bft) 100,00 %
16.05.2021 14:16 16,3 C 17,2 C 15,0 C 64 % 1001,2 hPa 0,0 l/m 2 min 0 min 497 W/m 22,5 km/h (4 Bft) 100,00 %
16.05.2021 14:18 16,3 C 17,2 C 15,0 C 63 % 1001,6 hPa 0,0 l/m 2 min 0 min 509 W/m 29,0 km/h (5 Bft) 97,87 %
16.05.2021 14:20 16,2 C 16,7 C 14,5 C 62 % 1001,4 hPa 0,0 l/m 2 min 0 min 437 W/m 32,2 km/h (5 Bft) 97,87 %
16.05.2021 14:22 16,1 C 16,7 C 14,5 C 62 % 1001,4 hPa 0,0 l/m 0 min 0 min 390 W/m 35,4 km/h (5 Bft) 97,87 %
16.05.2021 14:24 16,0 C 16,1 C 13,9 C 62 % 1001,4 hPa 0,0 l/m 0 min 0 min 366 W/m 32,2 km/h (5 Bft) 97,87 %
16.05.2021 14:26 16,0 C 16,7 C 13,9 C 64 % 1001,4 hPa 0,0 l/m 0 min 0 min 348 W/m 22,5 km/h (4 Bft) 95,65 %
16.05.2021 14:28 16,0 C 16,7 C 13,9 C 64 % 1001,3 hPa 0,0 l/m 0 min 0 min 391 W/m 16,1 km/h (3 Bft) 97,87 %
16.05.2021 14:30 16,0 C 16,7 C 14,5 C 65 % 1001,3 hPa 0,0 l/m 0 min 0 min 389 W/m 16,1 km/h (3 Bft) 97,87 %
16.05.2021 14:32 16,0 C 16,7 C 14,5 C 64 % 1001,4 hPa 0,0 l/m 0 min 0 min 390 W/m 19,3 km/h (3 Bft) 95,74 %
16.05.2021 14:34 16,0 C 16,7 C 14,5 C 65 % 1001,3 hPa 0,0 l/m 2 min 0 min 429 W/m 16,1 km/h (3 Bft) 95,74 %
16.05.2021 14:36 16,0 C 16,7 C 14,5 C 64 % 1001,3 hPa 0,0 l/m 2 min 0 min 433 W/m 25,7 km/h (4 Bft) 97,87 %
16.05.2021 14:38 16,0 C 16,7 C 14,5 C 64 % 1001,3 hPa 0,0 l/m 2 min 0 min 431 W/m 22,5 km/h (4 Bft) 97,83 %
16.05.2021 14:40 16,0 C 16,7 C 14,5 C 63 % 1001,4 hPa 0,0 l/m 2 min 0 min 462 W/m 29,0 km/h (5 Bft) 95,74 %
16.05.2021 14:42 16,0 C 16,7 C 14,5 C 64 % 1001,2 hPa 0,0 l/m 2 min 0 min 506 W/m 29,0 km/h (5 Bft) 97,87 %
16.05.2021 14:44 16,0 C 17,2 C 14,5 C 64 % 1001,2 hPa 0,0 l/m 2 min 0 min 589 W/m 16,1 km/h (3 Bft) 97,87 %
16.05.2021 14:46 16,1 C 17,8 C 14,5 C 65 % 1001,2 hPa 0,0 l/m 2 min 0 min 699 W/m 19,3 km/h (3 Bft) 97,87 %
16.05.2021 14:48 16,2 C 18,3 C 15,0 C 65 % 1001,2 hPa 0,0 l/m 2 min 0 min 630 W/m 22,5 km/h (4 Bft) 97,87 %
16.05.2021 14:50 16,3 C 18,9 C 15,0 C 65 % 1001,4 hPa 0,0 l/m 2 min 0 min 829 W/m 25,7 km/h (4 Bft) 97,83 %
16.05.2021 14:52 16,5 C 18,9 C 15,0 C 63 % 1001,2 hPa 0,0 l/m 2 min 0 min 905 W/m 38,6 km/h (5 Bft) 93,62 %
16.05.2021 14:54 16,5 C 18,9 C 15,0 C 63 % 1001,3 hPa 0,0 l/m 2 min 0 min 987 W/m 41,8 km/h (6 Bft) 97,87 %
16.05.2021 14:56 16,7 C 18,9 C 15,0 C 63 % 1001,2 hPa 0,0 l/m 2 min 0 min 808 W/m 48,3 km/h (6 Bft) 97,87 %
16.05.2021 14:58 16,8 C 18,9 C 15,0 C 63 % 1001,0 hPa 0,0 l/m 2 min 0 min 948 W/m 45,1 km/h (6 Bft) 97,87 %
16.05.2021 15:00 16,8 C 19,4 C 15,0 C 63 % 1001,1 hPa 0,0 l/m 2 min 0 min 877 W/m 25,7 km/h (4 Bft) 97,87 %
16.05.2021 15:02 17,0 C 20,0 C 15,0 C 64 % 1001,0 hPa 0,0 l/m 2 min 0 min 1077 W/m 16,1 km/h (3 Bft) 95,65 %
16.05.2021 15:04 17,2 C 19,4 C 15,0 C 65 % 1000,9 hPa 0,0 l/m 2 min 0 min 736 W/m 16,1 km/h (3 Bft) 97,87 %
16.05.2021 15:06 17,3 C 19,4 C 15,0 C 64 % 1000,8 hPa 0,0 l/m 0 min 0 min 385 W/m 19,3 km/h (3 Bft) 97,87 %
16.05.2021 15:08 17,4 C 20,0 C 15,6 C 63 % 1000,7 hPa 0,0 l/m 2 min 0 min 1009 W/m 16,1 km/h (3 Bft) 97,87 %
16.05.2021 15:10 17,5 C 19,4 C 15,0 C 63 % 1000,9 hPa 0,0 l/m 2 min 0 min 597 W/m 22,5 km/h (4 Bft) 95,74 %
16.05.2021 15:12 17,4 C 19,4 C 15,0 C 62 % 1000,8 hPa 0,0 l/m 2 min 0 min 690 W/m 25,7 km/h (4 Bft) 97,87 %
16.05.2021 15:14 17,4 C 19,4 C 15,0 C 63 % 1001,1 hPa 0,0 l/m 2 min 0 min 1035 W/m 25,7 km/h (4 Bft) 97,83 %
16.05.2021 15:16 17,4 C 18,3 C 15,0 C 62 % 1000,9 hPa 0,0 l/m 0 min 0 min 322 W/m 29,0 km/h (5 Bft) 97,87 %
16.05.2021 15:18 17,1 C 17,8 C 14,5 C 63 % 1000,8 hPa 0,0 l/m 0 min 0 min 302 W/m 16,1 km/h (3 Bft) 97,87 %
16.05.2021 15:20 17,1 C 17,8 C 14,5 C 64 % 1001,0 hPa 0,0 l/m 0 min 0 min 300 W/m 16,1 km/h (3 Bft) 97,87 %
16.05.2021 15:22 17,0 C 17,2 C 14,5 C 63 % 1000,8 hPa 0,0 l/m 0 min 0 min 276 W/m 19,3 km/h (3 Bft) 95,74 %
16.05.2021 15:24 16,9 C 18,3 C 14,5 C 64 % 1000,8 hPa 0,0 l/m 0 min 0 min 278 W/m 22,5 km/h (4 Bft) 95,74 %
16.05.2021 15:26 16,9 C 18,3 C 14,5 C 64 % 1000,8 hPa 0,0 l/m 2 min 0 min 935 W/m 22,5 km/h (4 Bft) 97,83 %
16.05.2021 15:28 16,9 C 18,9 C 14,5 C 65 % 1000,7 hPa 0,0 l/m 2 min 0 min 1053 W/m 25,7 km/h (4 Bft) 97,87 %
16.05.2021 15:30 17,0 C 20,0 C 14,5 C 66 % 1000,7 hPa 0,0 l/m 2 min 0 min 1068 W/m 25,7 km/h (4 Bft) 97,87 %
16.05.2021 15:32 17,1 C 20,0 C 15,0 C 65 % 1000,7 hPa 0,0 l/m 2 min 0 min 1055 W/m 19,3 km/h (3 Bft) 97,87 %
16.05.2021 15:34 17,1 C 19,4 C 15,0 C 65 % 1000,8 hPa 0,0 l/m 2 min 0 min 1007 W/m 29,0 km/h (5 Bft) 97,87 %
16.05.2021 15:36 17,3 C 18,9 C 15,0 C 66 % 1000,7 hPa 0,0 l/m 2 min 0 min 561 W/m 12,9 km/h (3 Bft) 97,87 %
16.05.2021 15:38 17,3 C 18,9 C 15,0 C 65 % 1000,7 hPa 0,0 l/m 2 min 0 min 401 W/m 16,1 km/h (3 Bft) 97,83 %
16.05.2021 15:40 17,3 C 18,9 C 15,0 C 65 % 1000,8 hPa 0,0 l/m 2 min 0 min 425 W/m 22,5 km/h (4 Bft) 97,87 %
16.05.2021 15:42 17,3 C 18,9 C 15,0 C 64 % 1000,7 hPa 0,0 l/m 2 min 0 min 528 W/m 19,3 km/h (3 Bft) 97,87 %
16.05.2021 15:44 17,3 C 19,4 C 15,0 C 64 % 1000,7 hPa 0,0 l/m 2 min 0 min 507 W/m 22,5 km/h (4 Bft) 97,87 %
16.05.2021 15:46 17,3 C 18,9 C 15,0 C 63 % 1000,8 hPa 0,0 l/m 2 min 0 min 486 W/m 32,2 km/h (5 Bft) 97,87 %
16.05.2021 15:48 17,2 C 18,3 C 15,0 C 64 % 1000,7 hPa 0,0 l/m 0 min 0 min 318 W/m 19,3 km/h (3 Bft) 97,87 %
16.05.2021 15:50 17,1 C 17,8 C 14,5 C 64 % 1000,7 hPa 0,0 l/m 0 min 0 min 285 W/m 19,3 km/h (3 Bft) 97,83 %
16.05.2021 15:52 17,1 C 19,4 C 15,0 C 65 % 1000,7 hPa 0,0 l/m 2 min 0 min 466 W/m 22,5 km/h (4 Bft) 100,00 %
16.05.2021 15:54 17,2 C 18,9 C 15,0 C 65 % 1000,7 hPa 0,0 l/m 2 min 0 min 917 W/m 19,3 km/h (3 Bft) 97,87 %
16.05.2021 15:56 17,2 C 18,9 C 15,0 C 64 % 1000,7 hPa 0,0 l/m 0 min 0 min 261 W/m 19,3 km/h (3 Bft) 100,00 %
16.05.2021 15:58 17,2 C 20,6 C 15,0 C 66 % 1000,8 hPa 0,0 l/m 2 min 0 min 686 W/m 19,3 km/h (3 Bft) 97,87 %
16.05.2021 16:00 17,3 C 21,7 C 15,6 C 66 % 1000,7 hPa 0,0 l/m 2 min 0 min 961 W/m 19,3 km/h (3 Bft) 100,00 %
16.05.2021 16:02 17,4 C 21,7 C 15,6 C 66 % 1000,6 hPa 0,0 l/m 2 min 0 min 958 W/m 19,3 km/h (3 Bft) 100,00 %
16.05.2021 16:04 17,6 C 22,2 C 15,6 C 64 % 1000,7 hPa 0,0 l/m 2 min 0 min 916 W/m 25,7 km/h (4 Bft) 97,87 %
16.05.2021 16:06 17,9 C 22,2 C 15,6 C 63 % 1000,7 hPa 0,0 l/m 2 min 0 min 918 W/m 16,1 km/h (3 Bft) 100,00 %
16.05.2021 16:08 17,9 C 21,1 C 15,6 C 62 % 1000,7 hPa 0,0 l/m 0 min 0 min 305 W/m 12,9 km/h (3 Bft) 100,00 %
16.05.2021 16:10 17,9 C 20,6 C 15,6 C 60 % 1000,7 hPa 0,0 l/m 0 min 0 min 274 W/m 22,5 km/h (4 Bft) 100,00 %
16.05.2021 16:12 17,8 C 20,6 C 15,0 C 59 % 1000,7 hPa 0,0 l/m 2 min 0 min 752 W/m 41,8 km/h (6 Bft) 100,00 %
16.05.2021 16:14 17,6 C 20,0 C 15,0 C 60 % 1000,6 hPa 0,0 l/m 2 min 0 min 908 W/m 32,2 km/h (5 Bft) 100,00 %
16.05.2021 16:16 17,5 C 20,6 C 15,0 C 60 % 1000,6 hPa 0,0 l/m 2 min 0 min 909 W/m 16,1 km/h (3 Bft) 97,87 %
16.05.2021 16:18 17,5 C 20,0 C 15,0 C 61 % 1000,5 hPa 0,0 l/m 2 min 0 min 909 W/m 22,5 km/h (4 Bft) 97,87 %
16.05.2021 16:20 17,5 C 18,9 C 15,0 C 61 % 1000,6 hPa 0,0 l/m 2 min 0 min 886 W/m 25,7 km/h (4 Bft) 100,00 %
16.05.2021 16:22 17,5 C 18,3 C 15,0 C 61 % 1000,4 hPa 0,0 l/m 2 min 0 min 363 W/m 19,3 km/h (3 Bft) 97,87 %
16.05.2021 16:24 17,4 C 17,8 C 15,0 C 61 % 1000,5 hPa 0,0 l/m 0 min 0 min 260 W/m 16,1 km/h (3 Bft) 100,00 %
16.05.2021 16:26 17,3 C 17,2 C 14,5 C 61 % 1000,4 hPa 0,0 l/m 0 min 0 min 194 W/m 19,3 km/h (3 Bft) 97,87 %
16.05.2021 16:28 17,1 C 16,7 C 14,5 C 61 % 1000,5 hPa 0,0 l/m 0 min 0 min 198 W/m 22,5 km/h (4 Bft) 100,00 %
16.05.2021 16:30 17,0 C 17,2 C 13,9 C 62 % 1000,4 hPa 0,0 l/m 0 min 0 min 218 W/m 19,3 km/h (3 Bft) 100,00 %
16.05.2021 16:32 16,9 C 20,0 C 14,5 C 63 % 1000,4 hPa 0,0 l/m 2 min 0 min 547 W/m 12,9 km/h (3 Bft) 100,00 %
16.05.2021 16:34 17,0 C 20,6 C 15,0 C 63 % 1000,4 hPa 0,0 l/m 2 min 0 min 669 W/m 12,9 km/h (3 Bft) 100,00 %
16.05.2021 16:36 17,1 C 21,7 C 15,0 C 63 % 1000,3 hPa 0,0 l/m 2 min 0 min 665 W/m 12,9 km/h (3 Bft) 97,83 %
16.05.2021 16:38 17,3 C 22,2 C 15,0 C 63 % 1000,3 hPa 0,0 l/m 2 min 0 min 858 W/m 22,5 km/h (4 Bft) 95,74 %
16.05.2021 16:40 17,4 C 22,8 C 15,0 C 62 % 1000,2 hPa 0,0 l/m 2 min 0 min 831 W/m 12,9 km/h (3 Bft) 93,62 %
16.05.2021 16:42 17,5 C 21,1 C 15,0 C 62 % 1000,2 hPa 0,0 l/m 2 min 0 min 618 W/m 12,9 km/h (3 Bft) 97,87 %
16.05.2021 16:44 17,5 C 20,0 C 15,0 C 63 % 1000,2 hPa 0,0 l/m 0 min 0 min 249 W/m 22,5 km/h (4 Bft) 97,87 %
16.05.2021 16:46 17,5 C 21,1 C 15,0 C 63 % 1000,2 hPa 0,0 l/m 2 min 0 min 354 W/m 12,9 km/h (3 Bft) 94,55 %
16.05.2021 16:48 17,6 C 22,8 C 15,0 C 63 % 1000,2 hPa 0,0 l/m 2 min 0 min 851 W/m 9,7 km/h (2 Bft) 97,37 %
16.05.2021 16:50 17,8 C 23,3 C 15,6 C 64 % 1000,2 hPa 0,0 l/m 2 min 0 min 878 W/m 12,9 km/h (3 Bft) 95,74 %
16.05.2021 16:52 17,9 C 23,9 C 15,6 C 63 % 1000,1 hPa 0,0 l/m 2 min 0 min 881 W/m 9,7 km/h (2 Bft) 93,62 %
16.05.2021 16:54 18,0 C 23,3 C 15,6 C 61 % 1000,0 hPa 0,0 l/m 2 min 0 min 875 W/m 22,5 km/h (4 Bft) 93,62 %
16.05.2021 16:56 18,1 C 23,9 C 16,1 C 62 % 1000,0 hPa 0,0 l/m 2 min 0 min 812 W/m 12,9 km/h (3 Bft) 95,74 %
16.05.2021 16:58 18,3 C 22,8 C 16,1 C 62 % 1000,0 hPa 0,0 l/m 2 min 0 min 744 W/m 16,1 km/h (3 Bft) 93,62 %
16.05.2021 17:00 18,3 C 22,8 C 15,6 C 61 % 1000,1 hPa 0,0 l/m 2 min 0 min 744 W/m 19,3 km/h (3 Bft) 95,74 %
16.05.2021 17:02 18,1 C 22,8 C 15,6 C 61 % 1000,0 hPa 0,0 l/m 2 min 0 min 773 W/m 16,1 km/h (3 Bft) 95,65 %
16.05.2021 17:04 18,1 C 23,3 C 15,6 C 61 % 1000,0 hPa 0,0 l/m 2 min 0 min 766 W/m 19,3 km/h (3 Bft) 95,74 %
16.05.2021 17:06 18,3 C 23,3 C 15,6 C 62 % 1000,0 hPa 0,0 l/m 2 min 0 min 747 W/m 12,9 km/h (3 Bft) 95,74 %
16.05.2021 17:08 18,4 C 21,7 C 15,6 C 62 % 999,9 hPa 0,0 l/m 2 min 0 min 453 W/m 16,1 km/h (3 Bft) 93,62 %
16.05.2021 17:10 18,4 C 22,2 C 15,6 C 61 % 1000,0 hPa 0,0 l/m 0 min 0 min 225 W/m 19,3 km/h (3 Bft) 93,62 %
16.05.2021 17:12 18,4 C 21,1 C 16,1 C 61 % 1000,0 hPa 0,0 l/m 2 min 0 min 732 W/m 12,9 km/h (3 Bft) 93,48 %
16.05.2021 17:14 18,3 C 19,4 C 15,6 C 59 % 999,9 hPa 0,0 l/m 0 min 0 min 235 W/m 35,4 km/h (5 Bft) 95,74 %
16.05.2021 17:16 18,0 C 18,3 C 15,6 C 59 % 1000,0 hPa 0,0 l/m 0 min 0 min 263 W/m 35,4 km/h (5 Bft) 95,74 %
16.05.2021 17:18 17,8 C 18,9 C 15,6 C 60 % 1000,0 hPa 0,0 l/m 2 min 0 min 358 W/m 16,1 km/h (3 Bft) 93,62 %
16.05.2021 17:20 17,7 C 18,3 C 15,0 C 60 % 1000,0 hPa 0,0 l/m 2 min 0 min 327 W/m 25,7 km/h (4 Bft) 95,74 %
16.05.2021 17:22 17,6 C 19,4 C 15,0 C 60 % 1000,0 hPa 0,0 l/m 2 min 0 min 288 W/m 22,5 km/h (4 Bft) 95,74 %
16.05.2021 17:24 17,6 C 20,6 C 15,0 C 61 % 999,9 hPa 0,0 l/m 2 min 0 min 713 W/m 22,5 km/h (4 Bft) 97,83 %
16.05.2021 17:26 17,6 C 18,9 C 15,0 C 61 % 999,9 hPa 0,0 l/m 2 min 0 min 472 W/m 22,5 km/h (4 Bft) 93,62 %
16.05.2021 17:28 17,6 C 18,3 C 15,0 C 61 % 999,9 hPa 0,0 l/m 0 min 0 min 202 W/m 25,7 km/h (4 Bft) 93,62 %
16.05.2021 17:30 17,5 C 17,2 C 15,0 C 61 % 999,8 hPa 0,0 l/m 0 min 0 min 152 W/m 19,3 km/h (3 Bft) 95,74 %
16.05.2021 17:32 17,4 C 16,7 C 14,5 C 61 % 999,9 hPa 0,0 l/m 0 min 0 min 121 W/m 22,5 km/h (4 Bft) 97,87 %
16.05.2021 17:34 17,3 C 16,7 C 14,5 C 61 % 999,9 hPa 0,0 l/m 0 min 0 min 106 W/m 16,1 km/h (3 Bft) 97,87 %
16.05.2021 17:36 17,1 C 16,7 C 13,9 C 62 % 999,9 hPa 0,0 l/m 0 min 0 min 88 W/m 16,1 km/h (3 Bft) 97,87 %
16.05.2021 17:38 17,0 C 16,1 C 13,9 C 63 % 999,8 hPa 0,0 l/m 0 min 0 min 74 W/m 16,1 km/h (3 Bft) 97,83 %
16.05.2021 17:40 16,9 C 16,1 C 13,9 C 63 % 999,9 hPa 0,0 l/m 0 min 0 min 61 W/m 22,5 km/h (4 Bft) 100,00 %
16.05.2021 17:42 16,7 C 15,6 C 13,4 C 63 % 999,8 hPa 0,0 l/m 0 min 0 min 54 W/m 16,1 km/h (3 Bft) 100,00 %
16.05.2021 17:44 16,6 C 15,6 C 13,4 C 64 % 999,9 hPa 0,0 l/m 0 min 0 min 54 W/m 22,5 km/h (4 Bft) 100,00 %
16.05.2021 17:46 16,6 C 15,6 C 13,4 C 64 % 999,8 hPa 0,0 l/m 0 min 0 min 52 W/m 19,3 km/h (3 Bft) 100,00 %
16.05.2021 17:48 16,5 C 15,6 C 13,4 C 64 % 999,8 hPa 0,0 l/m 0 min 0 min 43 W/m 9,7 km/h (2 Bft) 100,00 %
16.05.2021 17:50 16,5 C 15,6 C 13,4 C 65 % 999,8 hPa 0,0 l/m 0 min 0 min 34 W/m 6,4 km/h (2 Bft) 100,00 %
16.05.2021 17:52 16,5 C 15,6 C 13,4 C 66 % 999,9 hPa 0,0 l/m 0 min 0 min 26 W/m 9,7 km/h (2 Bft) 100,00 %
16.05.2021 17:54 16,5 C 15,6 C 12,8 C 67 % 1000,0 hPa 0,0 l/m 0 min 0 min 19 W/m 9,7 km/h (2 Bft) 97,87 %
16.05.2021 17:56 16,4 C 15,6 C 12,8 C 68 % 1000,0 hPa 0,0 l/m 0 min 2 min 15 W/m 19,3 km/h (3 Bft) 100,00 %
16.05.2021 17:58 16,1 C 14,4 C 12,3 C 64 % 1000,1 hPa 0,0 l/m 0 min 2 min 13 W/m 16,1 km/h (3 Bft) 100,00 %
16.05.2021 18:00 15,7 C 14,4 C 12,3 C 64 % 1000,0 hPa 0,0 l/m 0 min 2 min 12 W/m 29,0 km/h (5 Bft) 97,83 %
16.05.2021 18:02 15,4 C 13,9 C 10,6 C 66 % 1000,0 hPa 0,2 l/m 0 min 2 min 12 W/m 12,9 km/h (3 Bft) 95,74 %
16.05.2021 18:04 15,1 C 12,8 C 8,9 C 71 % 1000,2 hPa 0,2 l/m 0 min 2 min 13 W/m 19,3 km/h (3 Bft) 95,74 %
16.05.2021 18:08 14,3 C 10,6 C 7,8 C 75 % 1000,2 hPa 1,4 l/m 0 min 4 min 18 W/m 19,3 km/h (3 Bft) 97,87 %
16.05.2021 18:10 13,9 C 10,6 C 7,8 C 79 % 1000,2 hPa 0,6 l/m 0 min 2 min 28 W/m 16,1 km/h (3 Bft) 97,87 %
16.05.2021 18:12 13,5 C 10,0 C 7,8 C 80 % 1000,1 hPa 0,6 l/m 0 min 2 min 49 W/m 6,4 km/h (2 Bft) 97,83 %
16.05.2021 18:14 13,3 C 10,6 C 7,8 C 81 % 1000,0 hPa 0,2 l/m 0 min 2 min 82 W/m 3,2 km/h (1 Bft) 97,87 %
16.05.2021 18:16 13,2 C 10,6 C 7,8 C 82 % 999,9 hPa 0,0 l/m 0 min 2 min 103 W/m 3,2 km/h (1 Bft) 95,74 %
16.05.2021 18:18 13,1 C 10,6 C 7,8 C 82 % 1000,0 hPa 0,0 l/m 0 min 0 min 123 W/m 0,0 km/h (0 Bft) 95,74 %
16.05.2021 18:20 13,1 C 10,6 C 8,4 C 83 % 1000,0 hPa 0,0 l/m 0 min 0 min 133 W/m 3,2 km/h (1 Bft) 97,87 %
16.05.2021 18:22 13,1 C 11,1 C 8,4 C 84 % 1000,0 hPa 0,0 l/m 0 min 0 min 138 W/m 3,2 km/h (1 Bft) 97,87 %
16.05.2021 18:24 13,0 C 11,1 C 8,4 C 84 % 1000,0 hPa 0,0 l/m 0 min 0 min 139 W/m 6,4 km/h (2 Bft) 95,65 %
16.05.2021 18:26 13,0 C 11,7 C 8,4 C 85 % 1000,0 hPa 0,0 l/m 0 min 0 min 135 W/m 3,2 km/h (1 Bft) 95,74 %
16.05.2021 18:28 13,0 C 11,7 C 8,9 C 85 % 1000,0 hPa 0,0 l/m 0 min 0 min 127 W/m 0,0 km/h (0 Bft) 97,87 %
16.05.2021 18:30 13,1 C 11,7 C 8,9 C 85 % 999,9 hPa 0,0 l/m 0 min 0 min 121 W/m 6,4 km/h (2 Bft) 97,87 %
16.05.2021 18:32 13,1 C 11,7 C 8,9 C 85 % 1000,0 hPa 0,0 l/m 0 min 0 min 119 W/m 6,4 km/h (2 Bft) 97,87 %
16.05.2021 18:34 13,1 C 12,2 C 8,9 C 85 % 1000,1 hPa 0,0 l/m 0 min 0 min 118 W/m 6,4 km/h (2 Bft) 97,87 %
16.05.2021 18:36 13,0 C 12,2 C 8,9 C 85 % 1000,2 hPa 0,0 l/m 0 min 0 min 116 W/m 12,9 km/h (3 Bft) 97,83 %
16.05.2021 18:38 13,0 C 11,7 C 8,9 C 85 % 1000,3 hPa 0,0 l/m 0 min 0 min 113 W/m 16,1 km/h (3 Bft) 95,74 %
16.05.2021 18:40 13,0 C 12,2 C 8,9 C 86 % 1000,2 hPa 0,0 l/m 0 min 0 min 111 W/m 6,4 km/h (2 Bft) 96,23 %
16.05.2021 18:42 13,0 C 12,2 C 8,9 C 86 % 1000,2 hPa 0,0 l/m 0 min 0 min 108 W/m 6,4 km/h (2 Bft) 97,87 %
16.05.2021 18:44 13,0 C 12,2 C 8,9 C 86 % 1000,2 hPa 0,0 l/m 0 min 0 min 103 W/m 6,4 km/h (2 Bft) 97,87 %
16.05.2021 18:46 13,0 C 12,2 C 8,9 C 86 % 1000,3 hPa 0,0 l/m 0 min 0 min 98 W/m 6,4 km/h (2 Bft) 95,65 %
16.05.2021 18:48 13,0 C 12,2 C 8,9 C 86 % 1000,2 hPa 0,0 l/m 0 min 0 min 98 W/m 12,9 km/h (3 Bft) 97,87 %
16.05.2021 18:50 13,0 C 12,2 C 8,9 C 86 % 1000,2 hPa 0,0 l/m 0 min 0 min 104 W/m 12,9 km/h (3 Bft) 95,74 %
16.05.2021 18:52 13,0 C 12,2 C 8,9 C 86 % 1000,2 hPa 0,0 l/m 0 min 0 min 116 W/m 12,9 km/h (3 Bft) 100,00 %
16.05.2021 18:54 12,9 C 12,2 C 8,9 C 86 % 1000,2 hPa 0,0 l/m 0 min 0 min 144 W/m 12,9 km/h (3 Bft) 97,87 %
16.05.2021 18:56 13,0 C 12,8 C 8,9 C 87 % 1000,2 hPa 0,0 l/m 0 min 0 min 158 W/m 9,7 km/h (2 Bft) 97,87 %
16.05.2021 18:58 13,0 C 12,8 C 8,9 C 87 % 1000,2 hPa 0,0 l/m 0 min 0 min 148 W/m 9,7 km/h (2 Bft) 97,83 %
16.05.2021 19:00 13,0 C 12,8 C 8,9 C 88 % 1000,2 hPa 0,0 l/m 0 min 0 min 151 W/m 6,4 km/h (2 Bft) 95,74 %
16.05.2021 19:02 13,0 C 12,8 C 8,9 C 88 % 1000,2 hPa 0,0 l/m 2 min 0 min 161 W/m 6,4 km/h (2 Bft) 97,87 %
16.05.2021 19:04 13,0 C 12,8 C 8,9 C 88 % 1000,2 hPa 0,0 l/m 2 min 0 min 172 W/m 6,4 km/h (2 Bft) 97,56 %
16.05.2021 19:06 13,0 C 12,8 C 8,9 C 88 % 1000,2 hPa 0,0 l/m 2 min 0 min 174 W/m 19,3 km/h (3 Bft) 95,74 %
16.05.2021 19:08 13,0 C 12,8 C 8,9 C 88 % 1000,2 hPa 0,0 l/m 2 min 0 min 158 W/m 6,4 km/h (2 Bft) 97,87 %
16.05.2021 19:10 13,1 C 13,9 C 8,9 C 88 % 1000,2 hPa 0,0 l/m 2 min 0 min 196 W/m 9,7 km/h (2 Bft) 98,08 %
16.05.2021 19:12 13,1 C 13,9 C 9,5 C 88 % 1000,2 hPa 0,0 l/m 2 min 0 min 315 W/m 9,7 km/h (2 Bft) 97,87 %
16.05.2021 19:14 13,2 C 13,9 C 9,5 C 89 % 1000,2 hPa 0,0 l/m 2 min 0 min 337 W/m 16,1 km/h (3 Bft) 100,00 %
16.05.2021 19:16 13,3 C 13,3 C 9,5 C 88 % 1000,2 hPa 0,0 l/m 2 min 0 min 360 W/m 6,4 km/h (2 Bft) 100,00 %
16.05.2021 19:18 13,4 C 13,9 C 9,5 C 88 % 1000,2 hPa 0,0 l/m 2 min 0 min 359 W/m 6,4 km/h (2 Bft) 97,87 %
16.05.2021 19:20 13,4 C 13,9 C 9,5 C 88 % 1000,2 hPa 0,0 l/m 2 min 0 min 353 W/m 12,9 km/h (3 Bft) 100,00 %
16.05.2021 19:22 13,5 C 13,9 C 9,5 C 87 % 1000,2 hPa 0,0 l/m 2 min 0 min 329 W/m 12,9 km/h (3 Bft) 93,48 %
16.05.2021 19:24 13,5 C 13,3 C 9,5 C 87 % 1000,2 hPa 0,0 l/m 2 min 0 min 292 W/m 9,7 km/h (2 Bft) 100,00 %
16.05.2021 19:26 13,6 C 13,3 C 9,5 C 86 % 1000,2 hPa 0,0 l/m 2 min 0 min 264 W/m 16,1 km/h (3 Bft) 100,00 %
16.05.2021 19:28 13,6 C 13,3 C 8,9 C 85 % 1000,2 hPa 0,0 l/m 2 min 0 min 230 W/m 19,3 km/h (3 Bft) 97,87 %
16.05.2021 19:30 13,6 C 13,3 C 8,9 C 84 % 1000,2 hPa 0,0 l/m 2 min 0 min 141 W/m 12,9 km/h (3 Bft) 97,87 %
16.05.2021 19:32 13,5 C 12,8 C 8,9 C 83 % 1000,2 hPa 0,0 l/m 0 min 0 min 64 W/m 12,9 km/h (3 Bft) 97,87 %
16.05.2021 19:34 13,5 C 12,8 C 8,4 C 83 % 1000,3 hPa 0,0 l/m 0 min 0 min 50 W/m 12,9 km/h (3 Bft) 97,83 %
16.05.2021 19:36 13,5 C 12,8 C 8,4 C 82 % 1000,2 hPa 0,0 l/m 0 min 0 min 47 W/m 16,1 km/h (3 Bft) 95,74 %
16.05.2021 19:38 13,4 C 12,8 C 8,4 C 81 % 1000,3 hPa 0,0 l/m 0 min 0 min 44 W/m 12,9 km/h (3 Bft) 97,87 %
16.05.2021 19:40 13,4 C 12,8 C 8,4 C 81 % 1000,2 hPa 0,0 l/m 0 min 0 min 44 W/m 19,3 km/h (3 Bft) 97,87 %
16.05.2021 19:42 13,3 C 12,8 C 8,4 C 80 % 1000,2 hPa 0,0 l/m 0 min 0 min 42 W/m 6,4 km/h (2 Bft) 93,62 %
16.05.2021 19:44 13,3 C 12,8 C 8,4 C 80 % 1000,2 hPa 0,0 l/m 0 min 0 min 40 W/m 9,7 km/h (2 Bft) 93,48 %
16.05.2021 19:46 13,2 C 12,8 C 8,4 C 80 % 1000,2 hPa 0,0 l/m 0 min 0 min 40 W/m 9,7 km/h (2 Bft) 95,74 %
16.05.2021 19:48 13,2 C 12,2 C 8,4 C 80 % 1000,2 hPa 0,0 l/m 0 min 0 min 39 W/m 9,7 km/h (2 Bft) 93,62 %
16.05.2021 19:50 13,1 C 12,2 C 8,4 C 80 % 1000,2 hPa 0,0 l/m 0 min 0 min 37 W/m 6,4 km/h (2 Bft) 95,74 %
16.05.2021 19:52 13,1 C 12,2 C 8,4 C 80 % 1000,2 hPa 0,0 l/m 0 min 0 min 37 W/m 6,4 km/h (2 Bft) 95,74 %
16.05.2021 19:54 13,1 C 12,2 C 8,4 C 81 % 1000,2 hPa 0,0 l/m 0 min 0 min 35 W/m 3,2 km/h (1 Bft) 95,74 %
16.05.2021 19:56 13,1 C 12,2 C 8,4 C 81 % 1000,2 hPa 0,0 l/m 0 min 0 min 34 W/m 9,7 km/h (2 Bft) 95,65 %
16.05.2021 19:58 13,1 C 12,2 C 8,4 C 81 % 1000,2 hPa 0,0 l/m 0 min 0 min 33 W/m 6,4 km/h (2 Bft) 95,74 %
16.05.2021 20:00 13,1 C 12,2 C 8,4 C 81 % 1000,2 hPa 0,0 l/m 0 min 0 min 33 W/m 6,4 km/h (2 Bft) 93,62 %
16.05.2021 20:02 13,1 C 12,2 C 8,4 C 81 % 1000,2 hPa 0,0 l/m 0 min 0 min 32 W/m 3,2 km/h (1 Bft) 95,74 %
16.05.2021 20:04 13,1 C 12,2 C 8,4 C 81 % 1000,2 hPa 0,0 l/m 0 min 0 min 31 W/m 3,2 km/h (1 Bft) 97,56 %
16.05.2021 20:06 13,0 C 12,2 C 8,4 C 81 % 1000,2 hPa 0,0 l/m 0 min 0 min 30 W/m 3,2 km/h (1 Bft) 97,87 %
16.05.2021 20:08 13,0 C 12,2 C 8,4 C 82 % 1000,3 hPa 0,0 l/m 0 min 0 min 29 W/m 6,4 km/h (2 Bft) 95,74 %
16.05.2021 20:10 13,0 C 12,2 C 8,4 C 82 % 1000,2 hPa 0,0 l/m 0 min 0 min 28 W/m 6,4 km/h (2 Bft) 97,83 %
16.05.2021 20:12 13,0 C 12,2 C 7,8 C 82 % 1000,3 hPa 0,0 l/m 0 min 0 min 27 W/m 3,2 km/h (1 Bft) 97,87 %
16.05.2021 20:14 13,0 C 12,2 C 8,4 C 82 % 1000,3 hPa 0,0 l/m 0 min 0 min 26 W/m 3,2 km/h (1 Bft) 97,87 %
16.05.2021 20:16 12,9 C 12,2 C 8,4 C 82 % 1000,3 hPa 0,0 l/m 0 min 0 min 25 W/m 3,2 km/h (1 Bft) 98,11 %
16.05.2021 20:18 12,9 C 12,2 C 8,4 C 82 % 1000,4 hPa 0,0 l/m 0 min 0 min 25 W/m 3,2 km/h (1 Bft) 95,74 %
16.05.2021 20:20 12,9 C 12,2 C 8,4 C 82 % 1000,4 hPa 0,0 l/m 0 min 0 min 25 W/m 6,4 km/h (2 Bft) 95,65 %
16.05.2021 20:22 12,9 C 11,7 C 7,8 C 82 % 1000,4 hPa 0,0 l/m 0 min 0 min 25 W/m 3,2 km/h (1 Bft) 97,87 %
16.05.2021 20:24 12,9 C 11,7 C 7,8 C 82 % 1000,4 hPa 0,0 l/m 0 min 0 min 25 W/m 3,2 km/h (1 Bft) 97,87 %
16.05.2021 20:26 12,8 C 11,7 C 7,8 C 83 % 1000,4 hPa 0,0 l/m 0 min 0 min 25 W/m 3,2 km/h (1 Bft) 97,56 %
16.05.2021 20:28 12,8 C 11,7 C 7,8 C 83 % 1000,4 hPa 0,0 l/m 0 min 0 min 25 W/m 6,4 km/h (2 Bft) 97,87 %
16.05.2021 20:30 12,8 C 11,7 C 7,8 C 83 % 1000,4 hPa 0,0 l/m 0 min 0 min 24 W/m 3,2 km/h (1 Bft) 97,87 %
16.05.2021 20:32 12,7 C 11,7 C 7,8 C 83 % 1000,4 hPa 0,0 l/m 0 min 0 min 23 W/m 3,2 km/h (1 Bft) 98,08 %
16.05.2021 20:34 12,7 C 11,7 C 7,8 C 83 % 1000,4 hPa 0,0 l/m 0 min 0 min 22 W/m 0,0 km/h (0 Bft) 97,87 %
16.05.2021 20:36 12,7 C 11,7 C 8,4 C 83 % 1000,4 hPa 0,0 l/m 0 min 0 min 21 W/m 0,0 km/h (0 Bft) 97,87 %
16.05.2021 20:38 12,6 C 11,7 C 8,4 C 84 % 1000,4 hPa 0,0 l/m 0 min 0 min 19 W/m 3,2 km/h (1 Bft) 100,00 %
16.05.2021 20:40 12,6 C 11,7 C 8,4 C 84 % 1000,4 hPa 0,0 l/m 0 min 0 min 19 W/m 0,0 km/h (0 Bft) 100,00 %
16.05.2021 20:42 12,6 C 11,1 C 8,4 C 84 % 1000,4 hPa 0,0 l/m 0 min 0 min 19 W/m 0,0 km/h (0 Bft) 97,87 %
16.05.2021 20:44 12,6 C 11,1 C 8,4 C 85 % 1000,5 hPa 0,0 l/m 0 min 0 min 18 W/m 0,0 km/h (0 Bft) 97,83 %
16.05.2021 20:46 12,5 C 11,1 C 8,4 C 85 % 1000,5 hPa 0,0 l/m 0 min 0 min 17 W/m 0,0 km/h (0 Bft) 100,00 %
16.05.2021 20:48 12,5 C 11,1 C 8,4 C 85 % 1000,5 hPa 0,0 l/m 0 min 0 min 16 W/m 0,0 km/h (0 Bft) 100,00 %
16.05.2021 20:50 12,5 C 11,1 C 8,4 C 85 % 1000,5 hPa 0,0 l/m 0 min 0 min 15 W/m 0,0 km/h (0 Bft) 100,00 %
16.05.2021 20:52 12,5 C 11,1 C 8,4 C 85 % 1000,5 hPa 0,0 l/m 0 min 0 min 14 W/m 0,0 km/h (0 Bft) 97,87 %
16.05.2021 20:54 12,5 C 11,1 C 8,4 C 85 % 1000,6 hPa 0,0 l/m 0 min 0 min 13 W/m 0,0 km/h (0 Bft) 100,00 %
16.05.2021 20:56 12,4 C 10,6 C 7,8 C 85 % 1000,6 hPa 0,0 l/m 0 min 0 min 12 W/m 0,0 km/h (0 Bft) 97,83 %
16.05.2021 20:58 12,4 C 10,6 C 7,8 C 85 % 1000,6 hPa 0,0 l/m 0 min 0 min 12 W/m 0,0 km/h (0 Bft) 100,00 %
16.05.2021 21:00 12,4 C 10,6 C 7,8 C 85 % 1000,6 hPa 0,0 l/m 0 min 0 min 11 W/m 0,0 km/h (0 Bft) 100,00 %
16.05.2021 21:02 12,4 C 10,6 C 7,8 C 85 % 1000,6 hPa 0,0 l/m 0 min 0 min 11 W/m 3,2 km/h (1 Bft) 100,00 %
16.05.2021 21:04 12,3 C 10,6 C 7,8 C 85 % 1000,6 hPa 0,0 l/m 0 min 0 min 10 W/m 0,0 km/h (0 Bft) 100,00 %
16.05.2021 21:06 12,3 C 10,6 C 7,8 C 85 % 1000,7 hPa 0,0 l/m 0 min 0 min 9 W/m 0,0 km/h (0 Bft) 100,00 %
16.05.2021 21:08 12,3 C 10,6 C 7,8 C 85 % 1000,7 hPa 0,0 l/m 0 min 0 min 8 W/m 0,0 km/h (0 Bft) 100,00 %
16.05.2021 21:10 12,2 C 10,6 C 7,8 C 85 % 1000,8 hPa 0,0 l/m 0 min 0 min 7 W/m 0,0 km/h (0 Bft) 100,00 %
16.05.2021 21:12 12,1 C 10,0 C 7,8 C 85 % 1000,8 hPa 0,0 l/m 0 min 0 min 6 W/m 3,2 km/h (1 Bft) 97,87 %
16.05.2021 21:14 12,1 C 10,0 C 7,8 C 85 % 1000,8 hPa 0,0 l/m 0 min 0 min 5 W/m 6,4 km/h (2 Bft) 97,87 %
16.05.2021 21:16 12,0 C 10,0 C 7,8 C 86 % 1000,8 hPa 0,0 l/m 0 min 0 min 5 W/m 0,0 km/h (0 Bft) 97,87 %
16.05.2021 21:18 12,0 C 10,0 C 7,8 C 86 % 1000,8 hPa 0,0 l/m 0 min 0 min 5 W/m 3,2 km/h (1 Bft) 97,83 %
16.05.2021 21:20 11,9 C 10,0 C 7,8 C 87 % 1000,8 hPa 0,0 l/m 0 min 0 min 0 W/m 0,0 km/h (0 Bft) 97,87 %
16.05.2021 21:22 11,9 C 10,0 C 7,8 C 87 % 1000,9 hPa 0,0 l/m 0 min 0 min 0 W/m 0,0 km/h (0 Bft) 97,87 %
16.05.2021 21:24 11,8 C 10,0 C 7,8 C 87 % 1000,9 hPa 0,0 l/m 0 min 0 min 0 W/m 0,0 km/h (0 Bft) 97,87 %
16.05.2021 21:26 11,8 C 10,0 C 7,3 C 87 % 1000,9 hPa 0,0 l/m 0 min 0 min 0 W/m 0,0 km/h (0 Bft) 97,87 %
16.05.2021 21:28 11,8 C 10,0 C 7,3 C 87 % 1000,9 hPa 0,0 l/m 0 min 0 min 0 W/m 0,0 km/h (0 Bft) 97,87 %
16.05.2021 21:30 11,7 C 9,4 C 7,3 C 88 % 1000,9 hPa 0,0 l/m 0 min 0 min 0 W/m 0,0 km/h (0 Bft) 97,83 %
16.05.2021 21:32 11,6 C 9,4 C 7,3 C 88 % 1001,0 hPa 0,0 l/m 0 min 0 min 0 W/m 0,0 km/h (0 Bft) 97,87 %
16.05.2021 21:34 11,6 C 9,4 C 7,3 C 88 % 1001,0 hPa 0,0 l/m 0 min 0 min 0 W/m 0,0 km/h (0 Bft) 97,87 %
16.05.2021 21:36 11,6 C 9,4 C 7,3 C 88 % 1001,0 hPa 0,0 l/m 0 min 0 min 0 W/m 0,0 km/h (0 Bft) 97,87 %
16.05.2021 21:38 11,5 C 9,4 C 7,3 C 88 % 1001,0 hPa 0,0 l/m 0 min 0 min 0 W/m 0,0 km/h (0 Bft) 97,87 %
16.05.2021 21:40 11,5 C 9,4 C 7,3 C 88 % 1001,0 hPa 0,0 l/m 0 min 0 min 0 W/m 0,0 km/h (0 Bft) 97,87 %
16.05.2021 21:42 11,4 C 9,4 C 7,3 C 88 % 1001,0 hPa 0,0 l/m 0 min 0 min 0 W/m 0,0 km/h (0 Bft) 97,83 %
16.05.2021 21:44 11,4 C 9,4 C 7,3 C 88 % 1000,9 hPa 0,0 l/m 0 min 0 min 0 W/m 0,0 km/h (0 Bft) 97,87 %
16.05.2021 21:46 11,4 C 9,4 C 7,3 C 88 % 1000,9 hPa 0,0 l/m 0 min 0 min 0 W/m 0,0 km/h (0 Bft) 100,00 %
16.05.2021 21:48 11,3 C 9,4 C 7,3 C 88 % 1000,9 hPa 0,0 l/m 0 min 0 min 0 W/m 0,0 km/h (0 Bft) 100,00 %
16.05.2021 21:50 11,3 C 9,4 C 7,3 C 89 % 1000,9 hPa 0,0 l/m 0 min 0 min 0 W/m 0,0 km/h (0 Bft) 100,00 %
16.05.2021 21:52 11,2 C 9,4 C 7,3 C 89 % 1000,9 hPa 0,0 l/m 0 min 0 min 0 W/m 0,0 km/h (0 Bft) 100,00 %
16.05.2021 21:54 11,1 C 9,4 C 7,3 C 89 % 1000,9 hPa 0,0 l/m 0 min 0 min 0 W/m 0,0 km/h (0 Bft) 100,00 %
16.05.2021 21:56 11,1 C 9,4 C 7,3 C 89 % 1000,8 hPa 0,0 l/m 0 min 0 min 0 W/m 0,0 km/h (0 Bft) 100,00 %
16.05.2021 21:58 11,1 C 9,4 C 7,3 C 89 % 1000,9 hPa 0,0 l/m 0 min 0 min 0 W/m 0,0 km/h (0 Bft) 100,00 %
16.05.2021 22:00 11,0 C 9,4 C 7,3 C 89 % 1000,9 hPa 0,0 l/m 0 min 0 min 0 W/m 0,0 km/h (0 Bft) 100,00 %
16.05.2021 22:02 11,0 C 9,4 C 7,3 C 89 % 1001,0 hPa 0,0 l/m 0 min 0 min 0 W/m 3,2 km/h (1 Bft) 95,74 %
16.05.2021 22:04 11,0 C 9,4 C 7,3 C 89 % 1001,0 hPa 0,0 l/m 0 min 0 min 0 W/m 3,2 km/h (1 Bft) 100,00 %
16.05.2021 22:06 10,9 C 9,4 C 7,3 C 90 % 1001,0 hPa 0,0 l/m 0 min 0 min 0 W/m 3,2 km/h (1 Bft) 100,00 %
16.05.2021 22:08 10,9 C 9,4 C 7,3 C 90 % 1001,0 hPa 0,0 l/m 0 min 0 min 0 W/m 3,2 km/h (1 Bft) 100,00 %
16.05.2021 22:10 10,8 C 9,4 C 7,3 C 90 % 1001,0 hPa 0,0 l/m 0 min 0 min 0 W/m 3,2 km/h (1 Bft) 100,00 %
16.05.2021 22:12 10,8 C 9,4 C 7,3 C 90 % 1001,0 hPa 0,0 l/m 0 min 0 min 0 W/m 3,2 km/h (1 Bft) 100,00 %
16.05.2021 22:14 10,8 C 9,4 C 7,3 C 90 % 1001,0 hPa 0,0 l/m 0 min 0 min 0 W/m 3,2 km/h (1 Bft) 100,00 %
16.05.2021 22:16 10,7 C 9,4 C 7,3 C 90 % 1001,0 hPa 0,0 l/m 0 min 0 min 0 W/m 3,2 km/h (1 Bft) 100,00 %
16.05.2021 22:18 10,7 C 9,4 C 7,3 C 90 % 1000,9 hPa 0,0 l/m 0 min 0 min 0 W/m 0,0 km/h (0 Bft) 97,83 %
16.05.2021 22:20 10,6 C 9,4 C 7,3 C 90 % 1000,9 hPa 0,0 l/m 0 min 0 min 0 W/m 0,0 km/h (0 Bft) 100,00 %
16.05.2021 22:22 10,6 C 9,4 C 7,3 C 90 % 1000,9 hPa 0,0 l/m 0 min 0 min 0 W/m 0,0 km/h (0 Bft) 100,00 %
16.05.2021 22:24 10,6 C 9,4 C 7,3 C 90 % 1000,9 hPa 0,0 l/m 0 min 0 min 0 W/m 3,2 km/h (1 Bft) 100,00 %
16.05.2021 22:26 10,6 C 9,4 C 7,3 C 90 % 1000,9 hPa 0,0 l/m 0 min 0 min 0 W/m 0,0 km/h (0 Bft) 97,87 %
16.05.2021 22:28 10,5 C 9,4 C 7,3 C 90 % 1000,9 hPa 0,0 l/m 0 min 0 min 0 W/m 3,2 km/h (1 Bft) 100,00 %
16.05.2021 22:30 10,5 C 9,4 C 7,3 C 91 % 1000,9 hPa 0,0 l/m 0 min 0 min 0 W/m 3,2 km/h (1 Bft) 100,00 %
16.05.2021 22:32 10,5 C 9,4 C 7,3 C 90 % 1000,9 hPa 0,0 l/m 0 min 0 min 0 W/m 0,0 km/h (0 Bft) 100,00 %
16.05.2021 22:34 10,5 C 9,4 C 7,3 C 90 % 1000,9 hPa 0,0 l/m 0 min 0 min 0 W/m 0,0 km/h (0 Bft) 100,00 %
16.05.2021 22:36 10,4 C 9,4 C 7,3 C 90 % 1001,0 hPa 0,0 l/m 0 min 0 min 0 W/m 0,0 km/h (0 Bft) 100,00 %
16.05.2021 22:38 10,4 C 9,4 C 7,3 C 90 % 1001,0 hPa 0,0 l/m 0 min 0 min 0 W/m 0,0 km/h (0 Bft) 100,00 %
16.05.2021 22:40 10,4 C 9,4 C 7,3 C 90 % 1001,0 hPa 0,0 l/m 0 min 0 min 0 W/m 3,2 km/h (1 Bft) 100,00 %
16.05.2021 22:42 10,4 C 9,4 C 7,3 C 90 % 1001,0 hPa 0,0 l/m 0 min 0 min 0 W/m 3,2 km/h (1 Bft) 100,00 %
16.05.2021 22:44 10,4 C 9,4 C 7,3 C 90 % 1001,0 hPa 0,0 l/m 0 min 0 min 0 W/m 3,2 km/h (1 Bft) 100,00 %
16.05.2021 22:46 10,3 C 9,4 C 6,7 C 90 % 1001,0 hPa 0,0 l/m 0 min 0 min 0 W/m 0,0 km/h (0 Bft) 100,00 %
16.05.2021 22:48 10,3 C 9,4 C 6,7 C 90 % 1001,0 hPa 0,0 l/m 0 min 0 min 0 W/m 0,0 km/h (0 Bft) 100,00 %
16.05.2021 22:50 10,3 C 9,4 C 6,7 C 90 % 1001,0 hPa 0,0 l/m 0 min 0 min 0 W/m 3,2 km/h (1 Bft) 97,87 %
16.05.2021 22:52 10,2 C 9,4 C 6,7 C 90 % 1001,0 hPa 0,0 l/m 0 min 0 min 0 W/m 6,4 km/h (2 Bft) 100,00 %
16.05.2021 22:54 10,2 C 9,4 C 6,7 C 90 % 1001,0 hPa 0,0 l/m 0 min 0 min 0 W/m 3,2 km/h (1 Bft) 100,00 %
16.05.2021 22:56 10,1 C 9,4 C 6,7 C 90 % 1001,0 hPa 0,0 l/m 0 min 0 min 0 W/m 3,2 km/h (1 Bft) 97,87 %
16.05.2021 22:58 10,1 C 9,4 C 6,7 C 90 % 1001,1 hPa 0,0 l/m 0 min 0 min 0 W/m 3,2 km/h (1 Bft) 97,87 %
16.05.2021 23:00 10,1 C 9,4 C 6,7 C 90 % 1001,0 hPa 0,0 l/m 0 min 0 min 0 W/m 3,2 km/h (1 Bft) 95,74 %
16.05.2021 23:02 10,1 C 9,4 C 6,7 C 90 % 1001,1 hPa 0,0 l/m 0 min 0 min 0 W/m 3,2 km/h (1 Bft) 97,96 %
16.05.2021 23:04 10,1 C 9,4 C 6,7 C 90 % 1001,1 hPa 0,0 l/m 0 min 0 min 0 W/m 3,2 km/h (1 Bft) 95,65 %
16.05.2021 23:06 10,1 C 9,4 C 6,7 C 90 % 1001,1 hPa 0,0 l/m 0 min 0 min 0 W/m 3,2 km/h (1 Bft) 100,00 %
16.05.2021 23:08 10,1 C 9,4 C 6,7 C 90 % 1001,1 hPa 0,0 l/m 0 min 0 min 0 W/m 3,2 km/h (1 Bft) 89,36 %
16.05.2021 23:10 10,1 C 9,4 C 6,7 C 90 % 1001,1 hPa 0,0 l/m 0 min 0 min 0 W/m 3,2 km/h (1 Bft) 93,62 %
16.05.2021 23:12 10,1 C 9,4 C 7,3 C 90 % 1001,1 hPa 0,0 l/m 0 min 0 min 0 W/m 3,2 km/h (1 Bft) 91,49 %
16.05.2021 23:14 10,1 C 9,4 C 7,3 C 90 % 1001,2 hPa 0,0 l/m 0 min 0 min 0 W/m 3,2 km/h (1 Bft) 93,62 %
16.05.2021 23:16 10,1 C 9,4 C 7,3 C 90 % 1001,1 hPa 0,0 l/m 0 min 0 min 0 W/m 3,2 km/h (1 Bft) 91,30 %
16.05.2021 23:18 10,0 C 9,4 C 7,3 C 90 % 1001,0 hPa 0,0 l/m 0 min 0 min 0 W/m 3,2 km/h (1 Bft) 93,62 %
16.05.2021 23:20 10,1 C 9,4 C 7,3 C 90 % 1001,0 hPa 0,0 l/m 0 min 0 min 0 W/m 3,2 km/h (1 Bft) 91,49 %
16.05.2021 23:22 10,0 C 9,4 C 7,3 C 90 % 1001,0 hPa 0,0 l/m 0 min 0 min 0 W/m 3,2 km/h (1 Bft) 93,62 %
16.05.2021 23:24 10,1 C 9,4 C 7,3 C 90 % 1001,1 hPa 0,0 l/m 0 min 0 min 0 W/m 3,2 km/h (1 Bft) 91,67 %
16.05.2021 23:26 10,0 C 9,4 C 7,3 C 91 % 1001,1 hPa 0,0 l/m 0 min 0 min 0 W/m 3,2 km/h (1 Bft) 93,62 %
16.05.2021 23:28 10,0 C 9,4 C 7,3 C 91 % 1001,1 hPa 0,0 l/m 0 min 0 min 0 W/m 3,2 km/h (1 Bft) 91,49 %
16.05.2021 23:30 10,1 C 9,4 C 7,3 C 91 % 1001,1 hPa 0,0 l/m 0 min 0 min 0 W/m 6,4 km/h (2 Bft) 93,62 %
16.05.2021 23:32 10,1 C 9,4 C 7,3 C 91 % 1001,1 hPa 0,0 l/m 0 min 0 min 0 W/m 6,4 km/h (2 Bft) 93,48 %
16.05.2021 23:34 10,0 C 9,4 C 7,3 C 91 % 1001,2 hPa 0,0 l/m 0 min 0 min 0 W/m 3,2 km/h (1 Bft) 89,36 %
16.05.2021 23:36 10,0 C 9,4 C 7,3 C 91 % 1001,1 hPa 0,0 l/m 0 min 0 min 0 W/m 6,4 km/h (2 Bft) 93,62 %
16.05.2021 23:38 10,1 C 9,4 C 7,3 C 91 % 1001,1 hPa 0,0 l/m 0 min 0 min 0 W/m 6,4 km/h (2 Bft) 94,92 %
16.05.2021 23:40 10,0 C 9,4 C 7,3 C 91 % 1001,2 hPa 0,0 l/m 0 min 0 min 0 W/m 3,2 km/h (1 Bft) 91,43 %
16.05.2021 23:42 10,0 C 9,4 C 7,3 C 91 % 1001,2 hPa 0,0 l/m 0 min 0 min 0 W/m 3,2 km/h (1 Bft) 95,74 %
16.05.2021 23:44 10,1 C 9,4 C 7,3 C 92 % 1001,1 hPa 0,0 l/m 0 min 0 min 0 W/m 3,2 km/h (1 Bft) 95,65 %
16.05.2021 23:46 10,1 C 9,4 C 7,3 C 92 % 1001,1 hPa 0,0 l/m 0 min 0 min 0 W/m 3,2 km/h (1 Bft) 93,62 %
16.05.2021 23:48 10,1 C 9,4 C 7,3 C 92 % 1001,1 hPa 0,0 l/m 0 min 0 min 0 W/m 3,2 km/h (1 Bft) 95,74 %
16.05.2021 23:50 10,1 C 9,4 C 7,3 C 92 % 1001,1 hPa 0,0 l/m 0 min 0 min 0 W/m 3,2 km/h (1 Bft) 93,62 %
16.05.2021 23:52 10,1 C 9,4 C 7,3 C 92 % 1001,2 hPa 0,0 l/m 0 min 0 min 0 W/m 6,4 km/h (2 Bft) 95,74 %
16.05.2021 23:54 10,1 C 9,4 C 7,3 C 92 % 1001,2 hPa 0,0 l/m 0 min 0 min 0 W/m 6,4 km/h (2 Bft) 95,74 %
16.05.2021 23:56 10,1 C 9,4 C 7,3 C 92 % 1001,2 hPa 0,0 l/m 0 min 0 min 0 W/m 6,4 km/h (2 Bft) 95,65 %
16.05.2021 23:58 10,1 C 9,4 C 7,3 C 92 % 1001,2 hPa 0,0 l/m 0 min 0 min 0 W/m 6,4 km/h (2 Bft) 95,74 %
_ Min-Zeit 06:00 05:02 05:00 16:12 17:30 - - - - 18:18 00:02
Minimum _ 8,5 C 7,8 C 6,7 C 59 % 999,8 hPa - - - - 0,0 km/h (0 Bft) 13,33 %
_ Max-Zeit 17:08 16:52 13:22 06:48 10:16 18:08 12:08 18:08 15:02 11:58 00:00
Maximum _ 18,4 C 23,9 C 22,3 C 95 % 1002,8 hPa 1,4 l/m 4 min 4 min 1077 W/m 57,9 km/h
S-SW (7 Bft)
100,00 %
Durchschnitt _ 12,2 C 12,2 C 9,9 C 83 % 1001,5 hPa #4,0 l/m #5:54 h #1:08 h 301 W/m 15,1 km/h (3 Bft) 97,09 %
© 2021 W. Hausmann